Time,TemperatureF,DewpointF,PressureIn,WindDirection,WindDirectionDegrees,WindSpeedMPH,WindSpeedGustMPH,Humidity,HourlyPrecipIn,Conditions,Clouds,dailyrainin,SoftwareType,DateUTC
2013-01-12 00:00:00,35.7,21.6,30.13,North,5,3.0,10.0,56,0.00,,SKC,0.00,VWS V14.00,2013-01-12 08:00:00,
2013-01-12 00:03:00,35.7,21.6,30.13,North,5,2.0,4.0,56,0.00,,SKC,0.00,VWS V14.00,2013-01-12 08:03:00,
2013-01-12 00:04:00,35.7,21.6,30.13,NNE,21,2.0,5.0,56,0.00,,SKC,0.00,VWS V14.00,2013-01-12 08:04:00,
2013-01-12 00:08:00,35.7,21.6,30.13,NNE,21,2.0,5.0,56,0.00,,SKC,0.00,VWS V14.00,2013-01-12 08:08:00,
2013-01-12 00:09:00,35.7,21.6,30.13,North,357,3.0,6.0,56,0.00,,SKC,0.00,VWS V14.00,2013-01-12 08:09:00,
2013-01-12 00:13:00,35.7,21.6,30.13,North,359,4.0,8.0,56,0.00,,SKC,0.00,VWS V14.00,2013-01-12 08:13:00,
2013-01-12 00:14:00,35.7,21.1,30.13,North,359,2.0,8.0,55,0.00,,SKC,0.00,VWS V14.00,2013-01-12 08:14:00,
2013-01-12 00:18:00,35.7,21.1,30.12,North,8,3.0,8.0,55,0.00,,SKC,0.00,VWS V14.00,2013-01-12 08:18:00,
2013-01-12 00:19:00,35.7,21.1,30.13,North,352,4.0,8.0,55,0.00,,SKC,0.00,VWS V14.00,2013-01-12 08:19:00,
2013-01-12 00:23:00,35.6,21.0,30.12,NNE,12,2.0,8.0,55,0.00,,SKC,0.00,VWS V14.00,2013-01-12 08:23:00,
2013-01-12 00:24:00,35.6,21.0,30.12,NNE,33,4.0,8.0,55,0.00,,SKC,0.00,VWS V14.00,2013-01-12 08:24:00,
2013-01-12 00:25:00,35.5,21.4,30.12,NNE,17,4.0,8.0,56,0.00,,SKC,0.00,VWS V14.00,2013-01-12 08:25:00,
2013-01-12 00:28:00,35.5,21.0,30.12,North,360,4.0,8.0,55,0.00,,SKC,0.00,VWS V14.00,2013-01-12 08:28:00,
2013-01-12 00:29:00,35.5,20.5,30.12,North,2,3.0,8.0,54,0.00,,SKC,0.00,VWS V14.00,2013-01-12 08:29:00,
2013-01-12 00:30:00,35.5,20.5,30.12,NNE,19,4.0,4.0,54,0.00,,SKC,0.00,VWS V14.00,2013-01-12 08:30:00,
2013-01-12 00:33:00,35.6,20.6,30.12,NNE,21,3.0,8.0,54,0.00,,SKC,0.00,VWS V14.00,2013-01-12 08:33:00,
2013-01-12 00:34:00,35.6,20.6,30.12,NNE,21,2.0,8.0,54,0.00,,SKC,0.00,VWS V14.00,2013-01-12 08:34:00,
2013-01-12 00:35:00,35.7,21.1,30.13,NNE,27,2.0,8.0,55,0.00,,SKC,0.00,VWS V14.00,2013-01-12 08:35:00,
2013-01-12 00:38:00,35.7,20.7,30.12,NNE,29,2.0,8.0,54,0.00,,SKC,0.00,VWS V14.00,2013-01-12 08:38:00,
2013-01-12 00:39:00,35.7,20.7,30.12,NNE,29,4.0,8.0,54,0.00,,SKC,0.00,VWS V14.00,2013-01-12 08:39:00,
2013-01-12 00:40:00,35.7,20.7,30.12,NNE,21,5.0,8.0,54,0.00,,SKC,0.00,VWS V14.00,2013-01-12 08:40:00,
2013-01-12 00:43:00,35.8,20.4,30.12,North,358,4.0,8.0,53,0.00,,SKC,0.00,VWS V14.00,2013-01-12 08:43:00,
2013-01-12 00:44:00,35.8,20.4,30.12,NE,52,6.0,8.0,53,0.00,,SKC,0.00,VWS V14.00,2013-01-12 08:44:00,
2013-01-12 00:45:00,35.9,20.5,30.12,North,9,3.0,8.0,53,0.00,,SKC,0.00,VWS V14.00,2013-01-12 08:45:00,
2013-01-12 00:48:00,36.0,20.5,30.12,North,356,7.0,9.0,53,0.00,,SKC,0.00,VWS V14.00,2013-01-12 08:48:00,
2013-01-12 00:49:00,36.0,20.1,30.12,North,358,5.0,10.0,52,0.00,,SKC,0.00,VWS V14.00,2013-01-12 08:49:00,
2013-01-12 00:50:00,36.1,20.2,30.12,North,10,3.0,10.0,52,0.00,,SKC,0.00,VWS V14.00,2013-01-12 08:50:00,
2013-01-12 00:54:00,36.2,19.8,30.13,NNW,348,3.0,11.0,51,0.00,,SKC,0.00,VWS V14.00,2013-01-12 08:54:00,
2013-01-12 00:55:00,36.2,19.8,30.13,NNE,13,4.0,11.0,51,0.00,,SKC,0.00,VWS V14.00,2013-01-12 08:55:00,
2013-01-12 00:59:00,36.4,19.5,30.13,North,10,7.0,11.0,50,0.00,,SKC,0.00,VWS V14.00,2013-01-12 08:59:00,
2013-01-12 01:00:00,36.4,19.5,30.13,NNE,15,8.0,11.0,50,0.00,,SKC,0.00,VWS V14.00,2013-01-12 09:00:00,
2013-01-12 01:01:00,36.4,19.1,30.13,North,358,6.0,8.0,49,0.00,,SKC,0.00,VWS V14.00,2013-01-12 09:01:00,
2013-01-12 01:04:00,36.5,19.2,30.12,NNW,338,6.0,11.0,49,0.00,,SKC,0.00,VWS V14.00,2013-01-12 09:04:00,
2013-01-12 01:05:00,36.6,19.3,30.12,North,9,2.0,11.0,49,0.00,,SKC,0.00,VWS V14.00,2013-01-12 09:05:00,
2013-01-12 01:06:00,36.6,19.3,30.12,North,7,5.0,11.0,49,0.00,,SKC,0.00,VWS V14.00,2013-01-12 09:06:00,
2013-01-12 01:09:00,36.5,19.2,30.12,North,5,4.0,11.0,49,0.00,,SKC,0.00,VWS V14.00,2013-01-12 09:09:00,
2013-01-12 01:10:00,36.5,19.2,30.12,North,5,4.0,11.0,49,0.00,,SKC,0.00,VWS V14.00,2013-01-12 09:10:00,
2013-01-12 01:11:00,36.5,19.2,30.12,NNE,27,6.0,11.0,49,0.00,,SKC,0.00,VWS V14.00,2013-01-12 09:11:00,
2013-01-12 01:14:00,36.5,18.7,30.13,NNW,348,7.0,11.0,48,0.00,,SKC,0.00,VWS V14.00,2013-01-12 09:14:00,
2013-01-12 01:15:00,36.5,18.7,30.13,NNE,17,4.0,11.0,48,0.00,,SKC,0.00,VWS V14.00,2013-01-12 09:15:00,
2013-01-12 01:16:00,36.5,18.7,30.13,NNW,348,4.0,11.0,48,0.00,,SKC,0.00,VWS V14.00,2013-01-12 09:16:00,
2013-01-12 01:19:00,36.6,18.8,30.13,NNW,338,8.0,11.0,48,0.00,,SKC,0.00,VWS V14.00,2013-01-12 09:19:00,
2013-01-12 01:20:00,36.6,18.8,30.13,North,5,5.0,11.0,48,0.00,,SKC,0.00,VWS V14.00,2013-01-12 09:20:00,
2013-01-12 01:21:00,36.6,18.8,30.13,NNE,32,4.0,11.0,48,0.00,,SKC,0.00,VWS V14.00,2013-01-12 09:21:00,
2013-01-12 01:25:00,36.5,18.7,30.13,NNE,29,4.0,11.0,48,0.00,,SKC,0.00,VWS V14.00,2013-01-12 09:25:00,
2013-01-12 01:26:00,36.5,18.7,30.13,North,1,8.0,11.0,48,0.00,,SKC,0.00,VWS V14.00,2013-01-12 09:26:00,
2013-01-12 01:30:00,36.5,18.7,30.13,North,6,4.0,11.0,48,0.00,,SKC,0.00,VWS V14.00,2013-01-12 09:30:00,
2013-01-12 01:31:00,36.4,18.6,30.13,NNE,16,2.0,5.0,48,0.00,,SKC,0.00,VWS V14.00,2013-01-12 09:31:00,
2013-01-12 01:35:00,36.4,18.6,30.14,NNE,20,4.0,8.0,48,0.00,,SKC,0.00,VWS V14.00,2013-01-12 09:35:00,
2013-01-12 01:36:00,36.4,18.6,30.13,North,5,3.0,8.0,48,0.00,,SKC,0.00,VWS V14.00,2013-01-12 09:36:00,
2013-01-12 01:40:00,36.3,18.0,30.14,NNE,22,3.0,11.0,47,0.00,,SKC,0.00,VWS V14.00,2013-01-12 09:40:00,
2013-01-12 01:41:00,36.4,18.6,30.14,North,11,2.0,11.0,48,0.00,,SKC,0.00,VWS V14.00,2013-01-12 09:41:00,
2013-01-12 01:45:00,36.4,18.1,30.14,NNW,338,8.0,11.0,47,0.00,,SKC,0.00,VWS V14.00,2013-01-12 09:45:00,
2013-01-12 01:46:00,36.4,18.1,30.14,North,356,4.0,11.0,47,0.00,,SKC,0.00,VWS V14.00,2013-01-12 09:46:00,
2013-01-12 01:47:00,36.3,18.0,30.14,North,9,5.0,11.0,47,0.00,,SKC,0.00,VWS V14.00,2013-01-12 09:47:00,
2013-01-12 01:50:00,36.3,18.0,30.14,NNE,21,4.0,11.0,47,0.00,,SKC,0.00,VWS V14.00,2013-01-12 09:50:00,
2013-01-12 01:51:00,36.3,18.0,30.14,North,5,5.0,11.0,47,0.00,,SKC,0.00,VWS V14.00,2013-01-12 09:51:00,
2013-01-12 01:52:00,36.3,18.0,30.14,North,359,3.0,11.0,47,0.00,,SKC,0.00,VWS V14.00,2013-01-12 09:52:00,
2013-01-12 01:55:00,36.3,18.0,30.14,NE,37,5.0,11.0,47,0.00,,SKC,0.00,VWS V14.00,2013-01-12 09:55:00,
2013-01-12 01:56:00,36.3,18.0,30.14,NW,315,7.0,11.0,47,0.00,,SKC,0.00,VWS V14.00,2013-01-12 09:56:00,
2013-01-12 01:57:00,36.3,18.0,30.14,North,7,5.0,11.0,47,0.00,,SKC,0.00,VWS V14.00,2013-01-12 09:57:00,
2013-01-12 02:00:00,36.2,17.4,30.14,NNW,348,4.0,4.0,46,0.00,,SKC,0.00,VWS V14.00,2013-01-12 10:00:00,
2013-01-12 02:01:00,36.2,17.9,30.14,North,358,2.0,4.0,47,0.00,,SKC,0.00,VWS V14.00,2013-01-12 10:01:00,
2013-01-12 02:02:00,36.2,17.9,30.14,North,358,5.0,7.0,47,0.00,,SKC,0.00,VWS V14.00,2013-01-12 10:02:00,
2013-01-12 02:05:00,36.1,17.8,30.14,NNE,31,3.0,7.0,47,0.00,,SKC,0.00,VWS V14.00,2013-01-12 10:05:00,
2013-01-12 02:06:00,36.1,17.8,30.15,NNE,26,3.0,7.0,47,0.00,,SKC,0.00,VWS V14.00,2013-01-12 10:06:00,
2013-01-12 02:07:00,36.1,17.8,30.15,NNE,17,2.0,7.0,47,0.00,,SKC,0.00,VWS V14.00,2013-01-12 10:07:00,
2013-01-12 02:10:00,36.0,17.7,30.14,NNE,24,2.0,8.0,47,0.00,,SKC,0.00,VWS V14.00,2013-01-12 10:10:00,
2013-01-12 02:11:00,35.9,17.6,30.14,NNE,19,3.0,8.0,47,0.00,,SKC,0.00,VWS V14.00,2013-01-12 10:11:00,
2013-01-12 02:12:00,35.9,17.6,30.14,NNE,19,2.0,8.0,47,0.00,,SKC,0.00,VWS V14.00,2013-01-12 10:12:00,
2013-01-12 02:15:00,35.7,18.0,30.14,NNE,32,3.0,8.0,48,0.00,,SKC,0.00,VWS V14.00,2013-01-12 10:15:00,
2013-01-12 02:16:00,35.7,18.0,30.15,NNE,32,4.0,8.0,48,0.00,,SKC,0.00,VWS V14.00,2013-01-12 10:16:00,
2013-01-12 02:17:00,35.7,18.0,30.15,NNE,32,4.0,8.0,48,0.00,,SKC,0.00,VWS V14.00,2013-01-12 10:17:00,
2013-01-12 02:21:00,35.5,17.8,30.15,North,5,2.0,8.0,48,0.00,,SKC,0.00,VWS V14.00,2013-01-12 10:21:00,
2013-01-12 02:22:00,35.5,17.3,30.15,NNE,23,1.0,8.0,47,0.00,,SKC,0.00,VWS V14.00,2013-01-12 10:22:00,
2013-01-12 02:26:00,35.5,17.3,30.14,North,7,3.0,8.0,47,0.00,,SKC,0.00,VWS V14.00,2013-01-12 10:26:00,
2013-01-12 02:27:00,35.4,17.2,30.14,NNE,14,3.0,8.0,47,0.00,,SKC,0.00,VWS V14.00,2013-01-12 10:27:00,
2013-01-12 02:30:00,35.5,17.3,30.14,North,2,2.0,8.0,47,0.00,,SKC,0.00,VWS V14.00,2013-01-12 10:30:00,
2013-01-12 02:31:00,35.5,17.3,30.14,North,10,3.0,5.0,47,0.00,,SKC,0.00,VWS V14.00,2013-01-12 10:31:00,
2013-01-12 02:32:00,35.4,17.2,30.14,North,10,2.0,5.0,47,0.00,,SKC,0.00,VWS V14.00,2013-01-12 10:32:00,
2013-01-12 02:36:00,35.4,17.2,30.14,North,2,4.0,10.0,47,0.00,,SKC,0.00,VWS V14.00,2013-01-12 10:36:00,
2013-01-12 02:37:00,35.4,16.7,30.14,North,7,4.0,10.0,46,0.00,,SKC,0.00,VWS V14.00,2013-01-12 10:37:00,
2013-01-12 02:41:00,35.5,17.3,30.14,North,359,3.0,10.0,47,0.00,,SKC,0.00,VWS V14.00,2013-01-12 10:41:00,
2013-01-12 02:42:00,35.4,17.2,30.14,North,353,3.0,10.0,47,0.00,,SKC,0.00,VWS V14.00,2013-01-12 10:42:00,
2013-01-12 02:46:00,35.3,17.1,30.14,North,358,2.0,10.0,47,0.00,,SKC,0.00,VWS V14.00,2013-01-12 10:46:00,
2013-01-12 02:47:00,35.3,17.1,30.14,North,358,0.0,10.0,47,0.00,,SKC,0.00,VWS V14.00,2013-01-12 10:47:00,
2013-01-12 02:51:00,35.2,17.0,30.14,NNE,22,1.0,10.0,47,0.00,,SKC,0.00,VWS V14.00,2013-01-12 10:51:00,
2013-01-12 02:52:00,35.2,17.0,30.14,NNE,21,2.0,10.0,47,0.00,,SKC,0.00,VWS V14.00,2013-01-12 10:52:00,
2013-01-12 02:56:00,35.0,16.8,30.14,NNE,17,0.0,10.0,47,0.00,,SKC,0.00,VWS V14.00,2013-01-12 10:56:00,
2013-01-12 02:57:00,35.0,16.8,30.14,NNE,17,1.0,10.0,47,0.00,,SKC,0.00,VWS V14.00,2013-01-12 10:57:00,
2013-01-12 02:58:00,35.0,16.8,30.14,North,11,3.0,10.0,47,0.00,,SKC,0.00,VWS V14.00,2013-01-12 10:58:00,
2013-01-12 03:00:00,34.9,17.2,30.14,North,9,4.0,10.0,48,0.00,,SKC,0.00,VWS V14.00,2013-01-12 11:00:00,
2013-01-12 03:01:00,34.9,16.7,30.14,North,2,2.0,4.0,47,0.00,,SKC,0.00,VWS V14.00,2013-01-12 11:01:00,
2013-01-12 03:02:00,34.9,16.7,30.14,North,2,3.0,4.0,47,0.00,,SKC,0.00,VWS V14.00,2013-01-12 11:02:00,
2013-01-12 03:03:00,34.9,16.7,30.14,North,2,1.0,4.0,47,0.00,,SKC,0.00,VWS V14.00,2013-01-12 11:03:00,
2013-01-12 03:06:00,34.8,16.6,30.14,North,354,1.0,4.0,47,0.00,,SKC,0.00,VWS V14.00,2013-01-12 11:06:00,
2013-01-12 03:07:00,34.8,16.6,30.14,North,353,2.0,4.0,47,0.00,,SKC,0.00,VWS V14.00,2013-01-12 11:07:00,
2013-01-12 03:08:00,34.8,17.1,30.14,North,358,4.0,4.0,48,0.00,,SKC,0.00,VWS V14.00,2013-01-12 11:08:00,
2013-01-12 03:12:00,34.8,17.1,30.14,North,1,2.0,6.0,48,0.00,,SKC,0.00,VWS V14.00,2013-01-12 11:12:00,
2013-01-12 03:13:00,34.7,17.0,30.14,North,1,2.0,6.0,48,0.00,,SKC,0.00,VWS V14.00,2013-01-12 11:13:00,
2013-01-12 03:17:00,34.6,16.9,30.14,North,9,2.0,6.0,48,0.00,,SKC,0.00,VWS V14.00,2013-01-12 11:17:00,
2013-01-12 03:18:00,34.6,16.9,30.14,North,3,2.0,6.0,48,0.00,,SKC,0.00,VWS V14.00,2013-01-12 11:18:00,
2013-01-12 03:22:00,34.5,16.9,30.13,North,354,3.0,6.0,48,0.00,,SKC,0.00,VWS V14.00,2013-01-12 11:22:00,
2013-01-12 03:23:00,34.4,16.8,30.14,NNE,21,2.0,6.0,48,0.00,,SKC,0.00,VWS V14.00,2013-01-12 11:23:00,
2013-01-12 03:27:00,34.5,16.9,30.13,North,352,6.0,7.0,48,0.00,,SKC,0.00,VWS V14.00,2013-01-12 11:27:00,
2013-01-12 03:28:00,34.5,16.9,30.13,North,7,5.0,7.0,48,0.00,,SKC,0.00,VWS V14.00,2013-01-12 11:28:00,
2013-01-12 03:30:00,34.5,16.9,30.13,North,353,5.0,7.0,48,0.00,,SKC,0.00,VWS V14.00,2013-01-12 11:30:00,
2013-01-12 03:32:00,34.5,16.4,30.13,NNW,348,8.0,10.0,47,0.00,,SKC,0.00,VWS V14.00,2013-01-12 11:32:00,
2013-01-12 03:33:00,34.6,16.5,30.13,North,9,5.0,10.0,47,0.00,,SKC,0.00,VWS V14.00,2013-01-12 11:33:00,
2013-01-12 03:34:00,34.6,16.5,30.13,NNW,338,5.0,10.0,47,0.00,,SKC,0.00,VWS V14.00,2013-01-12 11:34:00,
2013-01-12 03:37:00,34.6,16.5,30.13,North,9,2.0,10.0,47,0.00,,SKC,0.00,VWS V14.00,2013-01-12 11:37:00,
2013-01-12 03:38:00,34.6,16.5,30.13,NNE,13,5.0,10.0,47,0.00,,SKC,0.00,VWS V14.00,2013-01-12 11:38:00,
2013-01-12 03:39:00,34.6,16.5,30.13,North,9,3.0,10.0,47,0.00,,SKC,0.00,VWS V14.00,2013-01-12 11:39:00,
2013-01-12 03:42:00,34.7,16.0,30.13,North,357,0.0,10.0,46,0.00,,SKC,0.00,VWS V14.00,2013-01-12 11:42:00,
2013-01-12 03:43:00,34.7,16.0,30.13,NNE,24,2.0,10.0,46,0.00,,SKC,0.00,VWS V14.00,2013-01-12 11:43:00,
2013-01-12 03:44:00,34.7,16.0,30.13,NNE,17,2.0,10.0,46,0.00,,SKC,0.00,VWS V14.00,2013-01-12 11:44:00,
2013-01-12 03:47:00,34.8,16.1,30.13,North,10,2.0,10.0,46,0.00,,SKC,0.00,VWS V14.00,2013-01-12 11:47:00,
2013-01-12 03:48:00,34.8,16.1,30.13,North,354,4.0,10.0,46,0.00,,SKC,0.00,VWS V14.00,2013-01-12 11:48:00,
2013-01-12 03:49:00,34.8,16.1,30.13,North,6,3.0,10.0,46,0.00,,SKC,0.00,VWS V14.00,2013-01-12 11:49:00,
2013-01-12 03:52:00,34.9,16.2,30.13,NNE,22,2.0,10.0,46,0.00,,SKC,0.00,VWS V14.00,2013-01-12 11:52:00,
2013-01-12 03:54:00,34.9,15.7,30.13,North,356,3.0,10.0,45,0.00,,SKC,0.00,VWS V14.00,2013-01-12 11:54:00,
2013-01-12 03:57:00,35.0,15.8,30.13,North,11,3.0,10.0,45,0.00,,SKC,0.00,VWS V14.00,2013-01-12 11:57:00,
2013-01-12 03:58:00,35.0,16.3,30.13,NNE,15,3.0,10.0,46,0.00,,SKC,0.00,VWS V14.00,2013-01-12 11:58:00,
2013-01-12 03:59:00,35.0,16.3,30.13,NNE,15,3.0,10.0,46,0.00,,SKC,0.00,VWS V14.00,2013-01-12 11:59:00,
2013-01-12 04:00:00,35.1,16.4,30.13,North,8,5.0,10.0,46,0.00,,SKC,0.00,VWS V14.00,2013-01-12 12:00:00,
2013-01-12 04:03:00,35.1,16.4,30.13,North,1,2.0,9.0,46,0.00,,SKC,0.00,VWS V14.00,2013-01-12 12:03:00,
2013-01-12 04:04:00,35.1,16.4,30.13,NNW,338,1.0,9.0,46,0.00,,SKC,0.00,VWS V14.00,2013-01-12 12:04:00,
2013-01-12 04:08:00,35.1,16.9,30.13,NNW,348,6.0,9.0,47,0.00,,SKC,0.00,VWS V14.00,2013-01-12 12:08:00,
2013-01-12 04:09:00,35.0,16.8,30.13,NNW,333,5.0,9.0,47,0.00,,SKC,0.00,VWS V14.00,2013-01-12 12:09:00,
2013-01-12 04:13:00,34.9,16.7,30.13,North,352,1.0,9.0,47,0.00,,SKC,0.00,VWS V14.00,2013-01-12 12:13:00,
2013-01-12 04:14:00,34.9,16.7,30.13,NNE,21,1.0,9.0,47,0.00,,SKC,0.00,VWS V14.00,2013-01-12 12:14:00,
2013-01-12 04:15:00,34.8,16.6,30.13,NNE,21,0.0,9.0,47,0.00,,SKC,0.00,VWS V14.00,2013-01-12 12:15:00,
2013-01-12 04:18:00,34.7,16.5,30.13,NNW,338,7.0,9.0,47,0.00,,SKC,0.00,VWS V14.00,2013-01-12 12:18:00,
2013-01-12 04:19:00,34.7,16.5,30.13,NE,36,0.0,9.0,47,0.00,,SKC,0.00,VWS V14.00,2013-01-12 12:19:00,
2013-01-12 04:20:00,34.6,16.5,30.13,ENE,59,1.0,9.0,47,0.00,,SKC,0.00,VWS V14.00,2013-01-12 12:20:00,
2013-01-12 04:23:00,34.4,15.8,30.13,NNW,338,2.0,9.0,46,0.00,,SKC,0.00,VWS V14.00,2013-01-12 12:23:00,
2013-01-12 04:24:00,34.4,15.8,30.13,NNW,338,0.0,9.0,46,0.00,,SKC,0.00,VWS V14.00,2013-01-12 12:24:00,
2013-01-12 04:25:00,34.4,15.8,30.13,NNW,338,0.0,9.0,46,0.00,,SKC,0.00,VWS V14.00,2013-01-12 12:25:00,
2013-01-12 04:28:00,34.3,15.7,30.12,North,1,0.0,9.0,46,0.00,,SKC,0.00,VWS V14.00,2013-01-12 12:28:00,
2013-01-12 04:29:00,34.3,15.7,30.12,North,358,3.0,9.0,46,0.00,,SKC,0.00,VWS V14.00,2013-01-12 12:29:00,
2013-01-12 04:30:00,34.3,15.7,30.12,North,358,3.0,9.0,46,0.00,,SKC,0.00,VWS V14.00,2013-01-12 12:30:00,
2013-01-12 04:33:00,34.3,15.7,30.12,NNE,26,0.0,4.0,46,0.00,,SKC,0.00,VWS V14.00,2013-01-12 12:33:00,
2013-01-12 04:34:00,34.3,15.7,30.12,NNW,348,5.0,6.0,46,0.00,,SKC,0.00,VWS V14.00,2013-01-12 12:34:00,
2013-01-12 04:35:00,34.3,16.2,30.12,North,358,2.0,6.0,47,0.00,,SKC,0.00,VWS V14.00,2013-01-12 12:35:00,
2013-01-12 04:36:00,34.3,15.7,30.12,North,5,3.0,6.0,46,0.00,,SKC,0.00,VWS V14.00,2013-01-12 12:36:00,
2013-01-12 04:38:00,34.3,15.7,30.12,North,2,1.0,6.0,46,0.00,,SKC,0.00,VWS V14.00,2013-01-12 12:38:00,
2013-01-12 04:40:00,34.3,15.7,30.12,North,2,0.0,6.0,46,0.00,,SKC,0.00,VWS V14.00,2013-01-12 12:40:00,
2013-01-12 04:41:00,34.2,16.1,30.12,North,2,0.0,6.0,47,0.00,,SKC,0.00,VWS V14.00,2013-01-12 12:41:00,
2013-01-12 04:43:00,34.2,15.6,30.12,North,359,0.0,6.0,46,0.00,,SKC,0.00,VWS V14.00,2013-01-12 12:43:00,
2013-01-12 04:45:00,34.2,15.6,30.12,North,358,1.0,6.0,46,0.00,,SKC,0.00,VWS V14.00,2013-01-12 12:45:00,
2013-01-12 04:46:00,34.2,16.1,30.12,North,353,2.0,6.0,47,0.00,,SKC,0.00,VWS V14.00,2013-01-12 12:46:00,
2013-01-12 04:48:00,34.2,15.6,30.12,NNW,338,0.0,6.0,46,0.00,,SKC,0.00,VWS V14.00,2013-01-12 12:48:00,
2013-01-12 04:50:00,34.2,16.1,30.12,NNW,331,2.0,6.0,47,0.00,,SKC,0.00,VWS V14.00,2013-01-12 12:50:00,
2013-01-12 04:51:00,34.2,16.1,30.12,NNE,27,2.0,6.0,47,0.00,,SKC,0.00,VWS V14.00,2013-01-12 12:51:00,
2013-01-12 04:53:00,34.1,16.0,30.12,North,360,4.0,6.0,47,0.00,,SKC,0.00,VWS V14.00,2013-01-12 12:53:00,
2013-01-12 04:55:00,34.2,16.6,30.13,North,6,7.0,11.0,48,0.00,,SKC,0.00,VWS V14.00,2013-01-12 12:55:00,
2013-01-12 04:56:00,34.1,16.0,30.13,North,5,1.0,11.0,47,0.00,,SKC,0.00,VWS V14.00,2013-01-12 12:56:00,
2013-01-12 04:59:00,34.2,16.6,30.13,North,355,2.0,11.0,48,0.00,,SKC,0.00,VWS V14.00,2013-01-12 12:59:00,
2013-01-12 05:00:00,34.1,16.0,30.13,NNW,338,0.0,11.0,47,0.00,,SKC,0.00,VWS V14.00,2013-01-12 13:00:00,
2013-01-12 05:01:00,34.2,16.6,30.13,NNW,338,0.0,1.0,48,0.00,,SKC,0.00,VWS V14.00,2013-01-12 13:01:00,
2013-01-12 05:04:00,34.1,16.5,30.13,NW,312,2.0,4.0,48,0.00,,SKC,0.00,VWS V14.00,2013-01-12 13:04:00,
2013-01-12 05:05:00,34.1,16.5,30.13,NW,319,0.0,4.0,48,0.00,,SKC,0.00,VWS V14.00,2013-01-12 13:05:00,
2013-01-12 05:06:00,34.1,16.5,30.13,NW,323,1.0,4.0,48,0.00,,SKC,0.00,VWS V14.00,2013-01-12 13:06:00,
2013-01-12 05:09:00,34.0,16.4,30.13,North,355,1.0,7.0,48,0.00,,SKC,0.00,VWS V14.00,2013-01-12 13:09:00,
2013-01-12 05:10:00,33.9,16.3,30.14,NW,322,4.0,7.0,48,0.00,,SKC,0.00,VWS V14.00,2013-01-12 13:10:00,
2013-01-12 05:11:00,33.9,16.3,30.14,NW,312,0.0,7.0,48,0.00,,SKC,0.00,VWS V14.00,2013-01-12 13:11:00,
2013-01-12 05:14:00,33.9,16.8,30.13,NW,312,0.0,7.0,49,0.00,,SKC,0.00,VWS V14.00,2013-01-12 13:14:00,
2013-01-12 05:15:00,33.8,16.7,30.13,NW,312,1.0,7.0,49,0.00,,SKC,0.00,VWS V14.00,2013-01-12 13:15:00,
2013-01-12 05:16:00,33.8,16.7,30.13,NNW,331,7.0,8.0,49,0.00,,SKC,0.00,VWS V14.00,2013-01-12 13:16:00,
2013-01-12 05:19:00,33.7,17.0,30.13,NNW,333,0.0,8.0,50,0.00,,SKC,0.00,VWS V14.00,2013-01-12 13:19:00,
2013-01-12 05:20:00,33.7,17.0,30.13,NNW,333,0.0,8.0,50,0.00,,SKC,0.00,VWS V14.00,2013-01-12 13:20:00,
2013-01-12 05:21:00,33.7,17.0,30.13,NNW,333,0.0,8.0,50,0.00,,SKC,0.00,VWS V14.00,2013-01-12 13:21:00,
2013-01-12 05:24:00,33.6,17.0,30.14,North,352,0.0,8.0,50,0.00,,SKC,0.00,VWS V14.00,2013-01-12 13:24:00,
2013-01-12 05:25:00,33.6,17.0,30.13,North,352,0.0,8.0,50,0.00,,SKC,0.00,VWS V14.00,2013-01-12 13:25:00,
2013-01-12 05:26:00,33.5,16.9,30.13,North,352,0.0,8.0,50,0.00,,SKC,0.00,VWS V14.00,2013-01-12 13:26:00,
2013-01-12 05:29:00,33.4,17.2,30.14,NNW,338,0.0,8.0,51,0.00,,SKC,0.00,VWS V14.00,2013-01-12 13:29:00,
2013-01-12 05:30:00,33.4,17.2,30.14,NNW,338,0.0,0.0,51,0.00,,SKC,0.00,VWS V14.00,2013-01-12 13:30:00,
2013-01-12 05:31:00,33.3,17.1,30.14,NNW,338,0.0,2.0,51,0.00,,SKC,0.00,VWS V14.00,2013-01-12 13:31:00,
2013-01-12 05:34:00,33.2,17.0,30.14,North,354,2.0,5.0,51,0.00,,SKC,0.00,VWS V14.00,2013-01-12 13:34:00,
2013-01-12 05:35:00,33.2,17.0,30.14,North,354,0.0,5.0,51,0.00,,SKC,0.00,VWS V14.00,2013-01-12 13:35:00,
2013-01-12 05:36:00,33.2,17.0,30.14,North,354,0.0,5.0,51,0.00,,SKC,0.00,VWS V14.00,2013-01-12 13:36:00,
2013-01-12 05:39:00,33.1,17.0,30.14,NW,318,0.0,5.0,51,0.00,,SKC,0.00,VWS V14.00,2013-01-12 13:39:00,
2013-01-12 05:40:00,33.1,17.0,30.14,NW,318,0.0,5.0,51,0.00,,SKC,0.00,VWS V14.00,2013-01-12 13:40:00,
2013-01-12 05:41:00,33.1,17.4,30.14,NW,318,0.0,5.0,52,0.00,,SKC,0.00,VWS V14.00,2013-01-12 13:41:00,
2013-01-12 05:44:00,33.0,17.3,30.14,NNW,330,0.0,5.0,52,0.00,,SKC,0.00,VWS V14.00,2013-01-12 13:44:00,
2013-01-12 05:45:00,32.9,17.2,30.14,NNW,330,0.0,5.0,52,0.00,,SKC,0.00,VWS V14.00,2013-01-12 13:45:00,
2013-01-12 05:46:00,32.9,17.2,30.14,NNW,333,2.0,5.0,52,0.00,,SKC,0.00,VWS V14.00,2013-01-12 13:46:00,
2013-01-12 05:49:00,32.8,17.1,30.14,NNW,343,0.0,5.0,52,0.00,,SKC,0.00,VWS V14.00,2013-01-12 13:49:00,
2013-01-12 05:50:00,32.8,17.1,30.14,NNW,343,0.0,5.0,52,0.00,,SKC,0.00,VWS V14.00,2013-01-12 13:50:00,
2013-01-12 05:51:00,32.8,17.1,30.14,NNW,343,2.0,5.0,52,0.00,,SKC,0.00,VWS V14.00,2013-01-12 13:51:00,
2013-01-12 05:55:00,32.7,17.5,30.14,NNW,343,1.0,5.0,53,0.00,,SKC,0.00,VWS V14.00,2013-01-12 13:55:00,
2013-01-12 05:56:00,32.6,17.4,30.14,NNW,327,1.0,5.0,53,0.00,,SKC,0.00,VWS V14.00,2013-01-12 13:56:00,
2013-01-12 05:57:00,32.6,17.4,30.14,NNW,338,2.0,5.0,53,0.00,,SKC,0.00,VWS V14.00,2013-01-12 13:57:00,
2013-01-12 06:00:00,32.5,17.3,30.14,North,352,0.0,5.0,53,0.00,,SKC,0.00,VWS V14.00,2013-01-12 14:00:00,
2013-01-12 06:01:00,32.4,17.6,30.14,NNW,343,3.0,4.0,54,0.00,,SKC,0.00,VWS V14.00,2013-01-12 14:01:00,
2013-01-12 06:02:00,32.4,17.6,30.14,NNW,343,2.0,5.0,54,0.00,,SKC,0.00,VWS V14.00,2013-01-12 14:02:00,
2013-01-12 06:05:00,32.3,17.1,30.14,North,357,2.0,6.0,53,0.00,,SKC,0.00,VWS V14.00,2013-01-12 14:05:00,
2013-01-12 06:06:00,32.3,17.1,30.14,NNW,348,3.0,6.0,53,0.00,,SKC,0.00,VWS V14.00,2013-01-12 14:06:00,
2013-01-12 06:07:00,32.3,17.5,30.14,North,3,1.0,6.0,54,0.00,,SKC,0.00,VWS V14.00,2013-01-12 14:07:00,
2013-01-12 06:10:00,32.3,17.5,30.14,NNW,338,5.0,7.0,54,0.00,,SKC,0.00,VWS V14.00,2013-01-12 14:10:00,
2013-01-12 06:11:00,32.3,17.5,30.14,NNW,338,2.0,7.0,54,0.00,,SKC,0.00,VWS V14.00,2013-01-12 14:11:00,
2013-01-12 06:12:00,32.4,17.6,30.14,NNW,343,1.0,7.0,54,0.00,,SKC,0.00,VWS V14.00,2013-01-12 14:12:00,
2013-01-12 06:15:00,32.4,17.6,30.14,North,355,1.0,7.0,54,0.00,,SKC,0.00,VWS V14.00,2013-01-12 14:15:00,
2013-01-12 06:16:00,32.4,17.6,30.14,North,360,6.0,7.0,54,0.00,,SKC,0.00,VWS V14.00,2013-01-12 14:16:00,
2013-01-12 06:17:00,32.5,17.7,30.14,North,354,1.0,7.0,54,0.00,,SKC,0.00,VWS V14.00,2013-01-12 14:17:00,
2013-01-12 06:20:00,32.6,17.8,30.14,NNW,334,5.0,7.0,54,0.00,,SKC,0.00,VWS V14.00,2013-01-12 14:20:00,
2013-01-12 06:21:00,32.6,17.8,30.14,North,357,1.0,7.0,54,0.00,,SKC,0.00,VWS V14.00,2013-01-12 14:21:00,
2013-01-12 06:22:00,32.7,17.9,30.14,NNW,348,3.0,9.0,54,0.00,,SKC,0.00,VWS V14.00,2013-01-12 14:22:00,
2013-01-12 06:25:00,32.7,17.9,30.14,North,11,4.0,9.0,54,0.00,,SKC,0.00,VWS V14.00,2013-01-12 14:25:00,
2013-01-12 06:26:00,32.7,17.9,30.14,NNW,331,0.0,9.0,54,0.00,,SKC,0.00,VWS V14.00,2013-01-12 14:26:00,
2013-01-12 06:28:00,32.7,17.9,30.14,North,355,2.0,9.0,54,0.00,,SKC,0.00,VWS V14.00,2013-01-12 14:28:00,
2013-01-12 06:30:00,32.7,17.9,30.14,NNW,348,2.0,9.0,54,0.00,,SKC,0.00,VWS V14.00,2013-01-12 14:30:00,
2013-01-12 06:31:00,32.7,17.9,30.14,North,357,2.0,6.0,54,0.00,,SKC,0.00,VWS V14.00,2013-01-12 14:31:00,
2013-01-12 06:32:00,32.7,17.9,30.14,North,354,4.0,6.0,54,0.00,,SKC,0.00,VWS V14.00,2013-01-12 14:32:00,
2013-01-12 06:33:00,32.6,17.8,30.14,North,352,3.0,8.0,54,0.00,,SKC,0.00,VWS V14.00,2013-01-12 14:33:00,
2013-01-12 06:35:00,32.6,17.4,30.15,North,354,4.0,8.0,53,0.00,,SKC,0.00,VWS V14.00,2013-01-12 14:35:00,
2013-01-12 06:36:00,32.6,17.8,30.15,North,352,0.0,8.0,54,0.00,,SKC,0.00,VWS V14.00,2013-01-12 14:36:00,
2013-01-12 06:37:00,32.7,17.9,30.14,North,354,2.0,8.0,54,0.00,,SKC,0.00,VWS V14.00,2013-01-12 14:37:00,
2013-01-12 06:38:00,32.7,17.9,30.14,North,9,3.0,8.0,54,0.00,,SKC,0.00,VWS V14.00,2013-01-12 14:38:00,
2013-01-12 06:40:00,32.6,17.8,30.14,North,360,4.0,8.0,54,0.00,,SKC,0.00,VWS V14.00,2013-01-12 14:40:00,
2013-01-12 06:41:00,32.6,17.8,30.14,North,1,6.0,8.0,54,0.00,,SKC,0.00,VWS V14.00,2013-01-12 14:41:00,
2013-01-12 06:42:00,32.7,17.9,30.14,North,7,3.0,8.0,54,0.00,,SKC,0.00,VWS V14.00,2013-01-12 14:42:00,
2013-01-12 06:43:00,32.6,17.8,30.14,North,360,2.0,8.0,54,0.00,,SKC,0.00,VWS V14.00,2013-01-12 14:43:00,
2013-01-12 06:45:00,32.7,17.9,30.14,North,6,1.0,8.0,54,0.00,,SKC,0.00,VWS V14.00,2013-01-12 14:45:00,
2013-01-12 06:46:00,32.7,17.9,30.15,North,6,4.0,8.0,54,0.00,,SKC,0.00,VWS V14.00,2013-01-12 14:46:00,
2013-01-12 06:47:00,32.6,17.8,30.15,North,5,3.0,8.0,54,0.00,,SKC,0.00,VWS V14.00,2013-01-12 14:47:00,
2013-01-12 06:48:00,32.7,17.9,30.15,North,356,2.0,8.0,54,0.00,,SKC,0.00,VWS V14.00,2013-01-12 14:48:00,
2013-01-12 06:50:00,32.7,17.5,30.15,North,360,3.0,8.0,53,0.00,,SKC,0.00,VWS V14.00,2013-01-12 14:50:00,
2013-01-12 06:51:00,32.7,17.5,30.14,North,6,3.0,8.0,53,0.00,,SKC,0.00,VWS V14.00,2013-01-12 14:51:00,
2013-01-12 06:53:00,32.7,17.5,30.14,North,355,2.0,8.0,53,0.00,,SKC,0.00,VWS V14.00,2013-01-12 14:53:00,
2013-01-12 06:55:00,32.7,17.5,30.14,NNW,348,1.0,8.0,53,0.00,,SKC,0.00,VWS V14.00,2013-01-12 14:55:00,
2013-01-12 06:56:00,32.7,17.5,30.14,North,3,1.0,8.0,53,0.00,,SKC,0.00,VWS V14.00,2013-01-12 14:56:00,
2013-01-12 06:58:00,32.7,17.5,30.15,North,2,1.0,8.0,53,0.00,,SKC,0.00,VWS V14.00,2013-01-12 14:58:00,
2013-01-12 06:59:00,32.7,17.5,30.15,North,2,0.0,8.0,53,0.00,,SKC,0.00,VWS V14.00,2013-01-12 14:59:00,
2013-01-12 07:00:00,32.7,17.5,30.15,North,4,0.0,0.0,53,0.00,,SKC,0.00,VWS V14.00,2013-01-12 15:00:00,
2013-01-12 07:01:00,32.6,17.4,30.15,North,4,0.0,0.0,53,0.00,,SKC,0.00,VWS V14.00,2013-01-12 15:01:00,
2013-01-12 07:03:00,32.6,17.4,30.15,North,4,0.0,0.0,53,0.00,,SKC,0.00,VWS V14.00,2013-01-12 15:03:00,
2013-01-12 07:04:00,32.5,17.3,30.15,North,4,0.0,0.0,53,0.00,,SKC,0.00,VWS V14.00,2013-01-12 15:04:00,
2013-01-12 07:05:00,32.5,17.3,30.15,North,4,0.0,0.0,53,0.00,,SKC,0.00,VWS V14.00,2013-01-12 15:05:00,
2013-01-12 07:07:00,32.5,17.3,30.15,North,4,0.0,0.0,53,0.00,,SKC,0.00,VWS V14.00,2013-01-12 15:07:00,
2013-01-12 07:08:00,32.4,17.2,30.15,North,4,1.0,1.0,53,0.00,,SKC,0.00,VWS V14.00,2013-01-12 15:08:00,
2013-01-12 07:09:00,32.3,17.1,30.16,NNW,338,0.0,4.0,53,0.00,,SKC,0.00,VWS V14.00,2013-01-12 15:09:00,
2013-01-12 07:10:00,32.2,17.0,30.16,NNW,338,1.0,4.0,53,0.00,,SKC,0.00,VWS V14.00,2013-01-12 15:10:00,
2013-01-12 07:12:00,32.1,16.9,30.15,North,9,1.0,4.0,53,0.00,,SKC,0.00,VWS V14.00,2013-01-12 15:12:00,
2013-01-12 07:13:00,32.1,16.9,30.15,North,9,1.0,4.0,53,0.00,,SKC,0.00,VWS V14.00,2013-01-12 15:13:00,
2013-01-12 07:14:00,32.1,17.3,30.15,North,4,2.0,4.0,54,0.00,,SKC,0.00,VWS V14.00,2013-01-12 15:14:00,
2013-01-12 07:15:00,32.0,17.2,30.15,North,4,1.0,4.0,54,0.00,,SKC,0.00,VWS V14.00,2013-01-12 15:15:00,
2013-01-12 07:17:00,32.0,17.2,30.16,NNW,338,2.0,4.0,54,0.00,,SKC,0.00,VWS V14.00,2013-01-12 15:17:00,
2013-01-12 07:18:00,31.9,17.2,30.16,NNW,338,0.0,4.0,54,0.00,,SKC,0.00,VWS V14.00,2013-01-12 15:18:00,
2013-01-12 07:19:00,31.9,17.2,30.16,NNW,343,0.0,4.0,54,0.00,,SKC,0.00,VWS V14.00,2013-01-12 15:19:00,
2013-01-12 07:20:00,31.9,17.2,30.15,NNW,348,2.0,4.0,54,0.00,,SKC,0.00,VWS V14.00,2013-01-12 15:20:00,
2013-01-12 07:22:00,31.8,17.1,30.15,NNW,348,1.0,4.0,54,0.00,,SKC,0.00,VWS V14.00,2013-01-12 15:22:00,
2013-01-12 07:23:00,31.8,17.1,30.15,NNW,327,4.0,4.0,54,0.00,,SKC,0.00,VWS V14.00,2013-01-12 15:23:00,
2013-01-12 07:24:00,31.8,17.1,30.15,NW,326,1.0,4.0,54,0.00,,SKC,0.00,VWS V14.00,2013-01-12 15:24:00,
2013-01-12 07:25:00,31.8,17.1,30.15,NW,326,0.0,4.0,54,0.00,,SKC,0.00,VWS V14.00,2013-01-12 15:25:00,
2013-01-12 07:27:00,31.8,17.1,30.16,North,356,2.0,5.0,54,0.00,,SKC,0.00,VWS V14.00,2013-01-12 15:27:00,
2013-01-12 07:28:00,31.8,17.1,30.15,North,356,1.0,5.0,54,0.00,,SKC,0.00,VWS V14.00,2013-01-12 15:28:00,
2013-01-12 07:29:00,31.8,17.1,30.16,North,356,1.0,5.0,54,0.00,,SKC,0.00,VWS V14.00,2013-01-12 15:29:00,
2013-01-12 07:30:00,31.8,17.1,30.16,North,356,1.0,5.0,54,0.00,,SKC,0.00,VWS V14.00,2013-01-12 15:30:00,
2013-01-12 07:31:00,31.8,17.1,30.16,North,356,0.0,2.0,54,0.00,,SKC,0.00,VWS V14.00,2013-01-12 15:31:00,
2013-01-12 07:32:00,31.7,17.0,30.16,North,356,0.0,2.0,54,0.00,,SKC,0.00,VWS V14.00,2013-01-12 15:32:00,
2013-01-12 07:34:00,31.7,17.0,30.16,NW,311,1.0,5.0,54,0.00,,SKC,0.00,VWS V14.00,2013-01-12 15:34:00,
2013-01-12 07:35:00,31.7,16.5,30.16,NNW,343,1.0,5.0,53,0.00,,SKC,0.00,VWS V14.00,2013-01-12 15:35:00,
2013-01-12 07:36:00,31.7,16.5,30.16,NNW,348,2.0,5.0,53,0.00,,SKC,0.00,VWS V14.00,2013-01-12 15:36:00,
2013-01-12 07:37:00,31.7,16.5,30.16,NNW,348,1.0,5.0,53,0.00,,SKC,0.00,VWS V14.00,2013-01-12 15:37:00,
2013-01-12 07:39:00,31.7,16.5,30.16,North,352,2.0,5.0,53,0.00,,SKC,0.00,VWS V14.00,2013-01-12 15:39:00,
2013-01-12 07:40:00,31.8,16.6,30.16,North,353,0.0,5.0,53,0.00,,SKC,0.00,VWS V14.00,2013-01-12 15:40:00,
2013-01-12 07:41:00,31.7,17.0,30.16,North,353,0.0,5.0,54,0.00,,SKC,0.00,VWS V14.00,2013-01-12 15:41:00,
2013-01-12 07:42:00,31.7,17.0,30.16,NNW,343,2.0,5.0,54,0.00,,SKC,0.00,VWS V14.00,2013-01-12 15:42:00,
2013-01-12 07:44:00,31.7,16.5,30.16,North,11,1.0,5.0,53,0.00,,SKC,0.00,VWS V14.00,2013-01-12 15:44:00,
2013-01-12 07:45:00,31.7,16.5,30.16,NNW,348,1.0,5.0,53,0.00,,SKC,0.00,VWS V14.00,2013-01-12 15:45:00,
2013-01-12 07:46:00,31.7,16.5,30.16,North,352,1.0,5.0,53,0.00,,SKC,0.00,VWS V14.00,2013-01-12 15:46:00,
2013-01-12 07:48:00,31.7,16.5,30.16,NNW,348,3.0,5.0,53,0.00,,SKC,0.00,VWS V14.00,2013-01-12 15:48:00,
2013-01-12 07:49:00,31.7,16.5,30.16,NW,322,1.0,6.0,53,0.00,,SKC,0.00,VWS V14.00,2013-01-12 15:49:00,
2013-01-12 07:50:00,31.7,16.5,30.16,NNW,338,2.0,6.0,53,0.00,,SKC,0.00,VWS V14.00,2013-01-12 15:50:00,
2013-01-12 07:51:00,31.7,16.5,30.16,North,1,2.0,6.0,53,0.00,,SKC,0.00,VWS V14.00,2013-01-12 15:51:00,
2013-01-12 07:53:00,31.7,16.5,30.16,NNW,338,0.0,6.0,53,0.00,,SKC,0.00,VWS V14.00,2013-01-12 15:53:00,
2013-01-12 07:54:00,31.8,16.6,30.16,NNW,338,4.0,6.0,53,0.00,,SKC,0.00,VWS V14.00,2013-01-12 15:54:00,
2013-01-12 07:55:00,31.9,16.7,30.15,North,353,3.0,6.0,53,0.00,,SKC,0.00,VWS V14.00,2013-01-12 15:55:00,
2013-01-12 07:56:00,31.9,16.7,30.16,NNW,343,2.0,6.0,53,0.00,,SKC,0.00,VWS V14.00,2013-01-12 15:56:00,
2013-01-12 07:58:00,31.9,16.7,30.16,North,3,0.0,6.0,53,0.00,,SKC,0.00,VWS V14.00,2013-01-12 15:58:00,
2013-01-12 07:59:00,31.9,16.7,30.15,NNW,348,4.0,6.0,53,0.00,,SKC,0.00,VWS V14.00,2013-01-12 15:59:00,
2013-01-12 08:00:00,31.9,16.7,30.16,NNW,348,1.0,6.0,53,0.00,,SKC,0.00,VWS V14.00,2013-01-12 16:00:00,
2013-01-12 08:01:00,32.0,16.8,30.16,North,356,2.0,4.0,53,0.00,,SKC,0.00,VWS V14.00,2013-01-12 16:01:00,
2013-01-12 08:03:00,32.0,16.4,30.16,North,352,1.0,6.0,52,0.00,,SKC,0.00,VWS V14.00,2013-01-12 16:03:00,
2013-01-12 08:04:00,32.1,16.5,30.16,NNW,343,3.0,6.0,52,0.00,,SKC,0.00,VWS V14.00,2013-01-12 16:04:00,
2013-01-12 08:06:00,32.1,16.5,30.16,NNW,348,2.0,6.0,52,0.00,,SKC,0.00,VWS V14.00,2013-01-12 16:06:00,
2013-01-12 08:08:00,32.2,16.6,30.16,North,355,0.0,6.0,52,0.00,,SKC,0.00,VWS V14.00,2013-01-12 16:08:00,
2013-01-12 08:09:00,32.2,16.6,30.16,North,355,0.0,6.0,52,0.00,,SKC,0.00,VWS V14.00,2013-01-12 16:09:00,
2013-01-12 08:11:00,32.3,16.7,30.16,North,355,0.0,6.0,52,0.00,,SKC,0.00,VWS V14.00,2013-01-12 16:11:00,
2013-01-12 08:12:00,32.3,16.7,30.16,North,355,1.0,6.0,52,0.00,,SKC,0.00,VWS V14.00,2013-01-12 16:12:00,
2013-01-12 08:13:00,32.3,16.7,30.16,North,355,0.0,6.0,52,0.00,,SKC,0.00,VWS V14.00,2013-01-12 16:13:00,
2013-01-12 08:14:00,32.4,16.8,30.16,North,356,3.0,6.0,52,0.00,,SKC,0.00,VWS V14.00,2013-01-12 16:14:00,
2013-01-12 08:16:00,32.4,16.3,30.16,North,356,0.0,6.0,51,0.00,,SKC,0.00,VWS V14.00,2013-01-12 16:16:00,
2013-01-12 08:17:00,32.5,16.4,30.16,North,356,1.0,6.0,51,0.00,,SKC,0.00,VWS V14.00,2013-01-12 16:17:00,
2013-01-12 08:18:00,32.5,16.4,30.16,North,355,2.0,6.0,51,0.00,,SKC,0.00,VWS V14.00,2013-01-12 16:18:00,
2013-01-12 08:19:00,32.5,16.4,30.16,North,355,2.0,6.0,51,0.00,,SKC,0.00,VWS V14.00,2013-01-12 16:19:00,
2013-01-12 08:21:00,32.6,16.5,30.16,NNW,348,3.0,6.0,51,0.00,,SKC,0.00,VWS V14.00,2013-01-12 16:21:00,
2013-01-12 08:22:00,32.6,16.5,30.16,NNW,343,2.0,6.0,51,0.00,,SKC,0.00,VWS V14.00,2013-01-12 16:22:00,
2013-01-12 08:24:00,32.8,17.1,30.16,NNW,343,0.0,6.0,52,0.00,,SKC,0.00,VWS V14.00,2013-01-12 16:24:00,
2013-01-12 08:26:00,33.0,16.9,30.16,North,356,2.0,6.0,51,0.00,,SKC,0.00,VWS V14.00,2013-01-12 16:26:00,
2013-01-12 08:27:00,33.0,17.3,30.16,North,356,0.0,6.0,52,0.00,,SKC,0.00,VWS V14.00,2013-01-12 16:27:00,
2013-01-12 08:29:00,33.1,17.0,30.16,North,358,2.0,6.0,51,0.00,,SKC,0.00,VWS V14.00,2013-01-12 16:29:00,
2013-01-12 08:30:00,33.2,17.0,30.16,NW,326,5.0,6.0,51,0.00,,SKC,0.00,VWS V14.00,2013-01-12 16:30:00,
2013-01-12 08:31:00,33.3,16.7,30.16,NW,326,1.0,5.0,50,0.00,,SKC,0.00,VWS V14.00,2013-01-12 16:31:00,
2013-01-12 08:32:00,33.4,17.2,30.16,NW,323,4.0,6.0,51,0.00,,SKC,0.00,VWS V14.00,2013-01-12 16:32:00,
2013-01-12 08:34:00,33.6,17.0,30.16,NNW,334,5.0,6.0,50,0.00,,SKC,0.00,VWS V14.00,2013-01-12 16:34:00,
2013-01-12 08:36:00,33.8,16.7,30.16,NNW,334,1.0,6.0,49,0.00,,SKC,0.00,VWS V14.00,2013-01-12 16:36:00,
2013-01-12 08:38:00,33.9,17.2,30.16,NNW,334,0.0,6.0,50,0.00,,SKC,0.00,VWS V14.00,2013-01-12 16:38:00,
2013-01-12 08:39:00,34.0,16.4,30.15,North,352,5.0,9.0,48,0.00,,SKC,0.00,VWS V14.00,2013-01-12 16:39:00,
2013-01-12 08:41:00,34.1,16.5,30.16,NNW,338,2.0,9.0,48,0.00,,SKC,0.00,VWS V14.00,2013-01-12 16:41:00,
2013-01-12 08:43:00,34.2,16.6,30.16,NNW,348,2.0,9.0,48,0.00,,SKC,0.00,VWS V14.00,2013-01-12 16:43:00,
2013-01-12 08:44:00,34.4,17.2,30.15,NNW,338,4.0,9.0,49,0.00,,SKC,0.00,VWS V14.00,2013-01-12 16:44:00,
2013-01-12 08:45:00,34.4,16.8,30.15,NNW,338,2.0,9.0,48,0.00,,SKC,0.00,VWS V14.00,2013-01-12 16:45:00,
2013-01-12 08:46:00,34.6,16.9,30.15,NNW,343,3.0,9.0,48,0.00,,SKC,0.00,VWS V14.00,2013-01-12 16:46:00,
2013-01-12 08:47:00,34.7,17.0,30.15,NNW,348,3.0,9.0,48,0.00,,SKC,0.00,VWS V14.00,2013-01-12 16:47:00,
2013-01-12 08:50:00,34.8,17.1,30.15,NNW,343,1.0,9.0,48,0.00,,SKC,0.00,VWS V14.00,2013-01-12 16:50:00,
2013-01-12 08:51:00,35.0,17.3,30.15,NNW,348,2.0,9.0,48,0.00,,SKC,0.00,VWS V14.00,2013-01-12 16:51:00,
2013-01-12 08:52:00,35.0,17.3,30.15,North,353,9.0,9.0,48,0.00,,SKC,0.00,VWS V14.00,2013-01-12 16:52:00,
2013-01-12 08:54:00,35.2,16.5,30.15,North,356,0.0,9.0,46,0.00,,SKC,0.00,VWS V14.00,2013-01-12 16:54:00,
2013-01-12 08:55:00,35.3,16.6,30.15,North,357,0.0,9.0,46,0.00,,SKC,0.00,VWS V14.00,2013-01-12 16:55:00,
2013-01-12 08:57:00,35.4,17.2,30.15,North,357,3.0,9.0,47,0.00,,SKC,0.00,VWS V14.00,2013-01-12 16:57:00,
2013-01-12 08:58:00,35.5,17.3,30.15,North,357,3.0,9.0,47,0.00,,SKC,0.00,VWS V14.00,2013-01-12 16:58:00,
2013-01-12 09:00:00,35.6,16.9,30.15,NNW,343,3.0,9.0,46,0.00,,SKC,0.00,VWS V14.00,2013-01-12 17:00:00,
2013-01-12 09:02:00,35.9,16.6,30.15,North,356,0.0,6.0,45,0.00,,SKC,0.00,VWS V14.00,2013-01-12 17:02:00,
2013-01-12 09:03:00,36.0,17.2,30.15,North,358,3.0,6.0,46,0.00,,SKC,0.00,VWS V14.00,2013-01-12 17:03:00,
2013-01-12 09:05:00,36.2,16.9,30.15,North,5,2.0,6.0,45,0.00,,SKC,0.00,VWS V14.00,2013-01-12 17:05:00,
2013-01-12 09:07:00,36.4,17.1,30.15,NNW,331,0.0,6.0,45,0.00,,SKC,0.00,VWS V14.00,2013-01-12 17:07:00,
2013-01-12 09:08:00,36.6,17.3,30.15,NNW,338,2.0,6.0,45,0.00,,SKC,0.00,VWS V14.00,2013-01-12 17:08:00,
2013-01-12 09:10:00,36.8,17.0,30.15,NNW,338,0.0,6.0,44,0.00,,SKC,0.00,VWS V14.00,2013-01-12 17:10:00,
2013-01-12 09:12:00,36.9,17.6,30.15,NNW,329,0.0,6.0,45,0.00,,SKC,0.00,VWS V14.00,2013-01-12 17:12:00,
2013-01-12 09:14:00,37.1,16.7,30.15,North,357,1.0,8.0,43,0.00,,SKC,0.00,VWS V14.00,2013-01-12 17:14:00,
2013-01-12 09:15:00,37.2,16.8,30.15,North,352,7.0,8.0,43,0.00,,SKC,0.00,VWS V14.00,2013-01-12 17:15:00,
2013-01-12 09:17:00,37.3,16.3,30.15,North,354,5.0,9.0,42,0.00,,SKC,0.00,VWS V14.00,2013-01-12 17:17:00,
2013-01-12 09:19:00,37.5,17.0,30.15,NNW,348,3.0,9.0,43,0.00,,SKC,0.00,VWS V14.00,2013-01-12 17:19:00,
2013-01-12 09:20:00,37.7,16.7,30.15,North,354,1.0,9.0,42,0.00,,SKC,0.00,VWS V14.00,2013-01-12 17:20:00,
2013-01-12 09:22:00,37.8,16.2,30.15,North,354,8.0,9.0,41,0.00,,SKC,0.00,VWS V14.00,2013-01-12 17:22:00,
2013-01-12 09:24:00,38.0,15.8,30.15,North,360,1.0,9.0,40,0.00,,SKC,0.00,VWS V14.00,2013-01-12 17:24:00,
2013-01-12 09:25:00,38.1,15.9,30.15,North,358,2.0,9.0,40,0.00,,SKC,0.00,VWS V14.00,2013-01-12 17:25:00,
2013-01-12 09:26:00,38.2,16.6,30.15,North,359,1.0,9.0,41,0.00,,SKC,0.00,VWS V14.00,2013-01-12 17:26:00,
2013-01-12 09:27:00,38.2,16.0,30.15,North,353,4.0,9.0,40,0.00,,SKC,0.00,VWS V14.00,2013-01-12 17:27:00,
2013-01-12 09:29:00,38.4,15.6,30.15,North,11,5.0,11.0,39,0.00,,SKC,0.00,VWS V14.00,2013-01-12 17:29:00,
2013-01-12 09:30:00,38.5,15.7,30.15,NNE,14,5.0,6.0,39,0.00,,SKC,0.00,VWS V14.00,2013-01-12 17:30:00,
2013-01-12 09:31:00,38.5,16.3,30.15,NNW,338,6.0,7.0,40,0.00,,SKC,0.00,VWS V14.00,2013-01-12 17:31:00,
2013-01-12 09:32:00,38.6,15.8,30.15,NNW,348,2.0,7.0,39,0.00,,SKC,0.00,VWS V14.00,2013-01-12 17:32:00,
2013-01-12 09:34:00,38.7,15.3,30.15,NNW,348,11.0,11.0,38,0.00,,SKC,0.00,VWS V14.00,2013-01-12 17:34:00,
2013-01-12 09:36:00,38.8,15.4,30.15,NNE,17,3.0,11.0,38,0.00,,SKC,0.00,VWS V14.00,2013-01-12 17:36:00,
2013-01-12 09:37:00,38.8,15.4,30.15,NE,38,4.0,11.0,38,0.00,,SKC,0.00,VWS V14.00,2013-01-12 17:37:00,
2013-01-12 09:39:00,38.9,14.9,30.15,NNW,348,8.0,11.0,37,0.00,,SKC,0.00,VWS V14.00,2013-01-12 17:39:00,
2013-01-12 09:41:00,38.9,14.2,30.15,NNE,18,4.0,12.0,36,0.00,,SKC,0.00,VWS V14.00,2013-01-12 17:41:00,
2013-01-12 09:42:00,39.0,15.6,30.15,North,357,2.0,12.0,38,0.00,,SKC,0.00,VWS V14.00,2013-01-12 17:42:00,
2013-01-12 09:45:00,39.1,16.8,30.15,NNE,29,7.0,12.0,40,0.00,,SKC,0.00,VWS V14.00,2013-01-12 17:45:00,
2013-01-12 09:46:00,39.2,15.7,30.15,North,356,6.0,12.0,38,0.00,,SKC,0.00,VWS V14.00,2013-01-12 17:46:00,
2013-01-12 09:47:00,39.2,15.7,30.15,NNE,21,4.0,12.0,38,0.00,,SKC,0.00,VWS V14.00,2013-01-12 17:47:00,
2013-01-12 09:50:00,39.3,15.8,30.15,North,358,1.0,12.0,38,0.00,,SKC,0.00,VWS V14.00,2013-01-12 17:50:00,
2013-01-12 09:51:00,39.4,15.9,30.15,North,9,5.0,12.0,38,0.00,,SKC,0.00,VWS V14.00,2013-01-12 17:51:00,
2013-01-12 09:52:00,39.5,16.0,30.15,NW,321,10.0,12.0,38,0.00,,SKC,0.00,VWS V14.00,2013-01-12 17:52:00,
2013-01-12 09:55:00,39.5,14.8,30.15,NNE,33,3.0,12.0,36,0.00,,SKC,0.00,VWS V14.00,2013-01-12 17:55:00,
2013-01-12 09:56:00,39.6,16.1,30.15,North,5,4.0,12.0,38,0.00,,SKC,0.00,VWS V14.00,2013-01-12 17:56:00,
2013-01-12 09:58:00,39.7,16.2,30.15,NNE,23,5.0,13.0,38,0.00,,SKC,0.00,VWS V14.00,2013-01-12 17:58:00,
2013-01-12 10:00:00,39.7,16.2,30.15,North,353,10.0,13.0,38,0.00,,SKC,0.00,VWS V14.00,2013-01-12 18:00:00,
2013-01-12 10:01:00,39.7,14.9,30.15,North,2,4.0,10.0,36,0.00,,SKC,0.00,VWS V14.00,2013-01-12 18:01:00,
2013-01-12 10:03:00,39.8,15.7,30.15,North,11,4.0,10.0,37,0.00,,SKC,0.00,VWS V14.00,2013-01-12 18:03:00,
2013-01-12 10:05:00,39.9,15.8,30.15,NNE,33,5.0,10.0,37,0.00,,SKC,0.00,VWS V14.00,2013-01-12 18:05:00,
2013-01-12 10:06:00,39.9,15.8,30.15,North,5,3.0,10.0,37,0.00,,SKC,0.00,VWS V14.00,2013-01-12 18:06:00,
2013-01-12 10:08:00,40.1,15.9,30.15,NNW,338,6.0,10.0,37,0.00,,SKC,0.00,VWS V14.00,2013-01-12 18:08:00,
2013-01-12 10:10:00,40.2,16.0,30.15,NNE,24,4.0,10.0,37,0.00,,SKC,0.00,VWS V14.00,2013-01-12 18:10:00,
2013-01-12 10:11:00,40.3,16.1,30.15,NNW,338,9.0,10.0,37,0.00,,SKC,0.00,VWS V14.00,2013-01-12 18:11:00,
2013-01-12 10:13:00,40.4,15.6,30.15,NNE,13,5.0,10.0,36,0.00,,SKC,0.00,VWS V14.00,2013-01-12 18:13:00,
2013-01-12 10:15:00,40.5,15.0,30.15,North,1,2.0,10.0,35,0.00,,SKC,0.00,VWS V14.00,2013-01-12 18:15:00,
2013-01-12 10:16:00,40.5,16.3,30.15,North,6,2.0,10.0,37,0.00,,SKC,0.00,VWS V14.00,2013-01-12 18:16:00,
2013-01-12 10:17:00,40.6,16.4,30.15,NNE,17,6.0,10.0,37,0.00,,SKC,0.00,VWS V14.00,2013-01-12 18:17:00,
2013-01-12 10:18:00,40.7,15.8,30.15,NNE,24,1.0,10.0,36,0.00,,SKC,0.00,VWS V14.00,2013-01-12 18:18:00,
2013-01-12 10:20:00,40.8,15.9,30.15,NNE,28,6.0,11.0,36,0.00,,SKC,0.00,VWS V14.00,2013-01-12 18:20:00,
2013-01-12 10:21:00,40.9,16.6,30.15,North,360,5.0,11.0,37,0.00,,SKC,0.00,VWS V14.00,2013-01-12 18:21:00,
2013-01-12 10:22:00,40.9,16.6,30.15,NNW,348,5.0,11.0,37,0.00,,SKC,0.00,VWS V14.00,2013-01-12 18:22:00,
2013-01-12 10:23:00,41.0,15.5,30.15,ENE,63,6.0,11.0,35,0.00,,SKC,0.00,VWS V14.00,2013-01-12 18:23:00,
2013-01-12 10:25:00,41.0,14.8,30.15,NNE,13,5.0,14.0,34,0.00,,SKC,0.00,VWS V14.00,2013-01-12 18:25:00,
2013-01-12 10:26:00,41.1,14.9,30.15,NNW,333,6.0,14.0,34,0.00,,SKC,0.00,VWS V14.00,2013-01-12 18:26:00,
2013-01-12 10:27:00,41.1,14.9,30.15,NNW,348,5.0,14.0,34,0.00,,SKC,0.00,VWS V14.00,2013-01-12 18:27:00,
2013-01-12 10:28:00,41.1,14.9,30.15,North,356,11.0,14.0,34,0.00,,SKC,0.00,VWS V14.00,2013-01-12 18:28:00,
2013-01-12 10:30:00,41.1,15.6,30.15,NNW,348,2.0,5.0,35,0.00,,SKC,0.00,VWS V14.00,2013-01-12 18:30:00,
2013-01-12 10:32:00,41.2,16.3,30.15,North,356,5.0,8.0,36,0.00,,SKC,0.00,VWS V14.00,2013-01-12 18:32:00,
2013-01-12 10:33:00,41.3,15.1,30.14,NNE,29,3.0,8.0,34,0.00,,SKC,0.00,VWS V14.00,2013-01-12 18:33:00,
2013-01-12 10:35:00,41.4,15.1,30.14,NNE,19,4.0,8.0,34,0.00,,SKC,0.00,VWS V14.00,2013-01-12 18:35:00,
2013-01-12 10:37:00,41.4,15.1,30.14,North,7,4.0,8.0,34,0.00,,SKC,0.00,VWS V14.00,2013-01-12 18:37:00,
2013-01-12 10:38:00,41.5,15.2,30.14,North,360,7.0,8.0,34,0.00,,SKC,0.00,VWS V14.00,2013-01-12 18:38:00,
2013-01-12 10:40:00,41.6,16.0,30.15,NNE,32,3.0,8.0,35,0.00,,SKC,0.00,VWS V14.00,2013-01-12 18:40:00,
2013-01-12 10:42:00,41.8,16.8,30.14,NNE,21,3.0,8.0,36,0.00,,SKC,0.00,VWS V14.00,2013-01-12 18:42:00,
2013-01-12 10:43:00,41.9,16.3,30.14,North,9,2.0,8.0,35,0.00,,SKC,0.00,VWS V14.00,2013-01-12 18:43:00,
2013-01-12 10:45:00,42.1,15.8,30.14,NE,34,3.0,8.0,34,0.00,,SKC,0.00,VWS V14.00,2013-01-12 18:45:00,
2013-01-12 10:47:00,42.2,15.9,30.14,NE,36,3.0,8.0,34,0.00,,SKC,0.00,VWS V14.00,2013-01-12 18:47:00,
2013-01-12 10:48:00,42.3,15.3,30.14,NNE,20,3.0,8.0,33,0.00,,SKC,0.00,VWS V14.00,2013-01-12 18:48:00,
2013-01-12 10:50:00,42.4,15.4,30.14,NE,37,4.0,8.0,33,0.00,,SKC,0.00,VWS V14.00,2013-01-12 18:50:00,
2013-01-12 10:52:00,42.5,14.7,30.14,NNE,13,2.0,8.0,32,0.00,,SKC,0.00,VWS V14.00,2013-01-12 18:52:00,
2013-01-12 10:53:00,42.5,16.1,30.14,NE,34,4.0,8.0,34,0.00,,SKC,0.00,VWS V14.00,2013-01-12 18:53:00,
2013-01-12 10:55:00,42.7,15.6,30.14,NNE,15,4.0,8.0,33,0.00,,SKC,0.00,VWS V14.00,2013-01-12 18:55:00,
2013-01-12 10:57:00,42.7,14.9,30.13,NNE,25,3.0,10.0,32,0.00,,SKC,0.00,VWS V14.00,2013-01-12 18:57:00,
2013-01-12 10:58:00,42.7,17.0,30.13,NNE,25,4.0,10.0,35,0.00,,SKC,0.00,VWS V14.00,2013-01-12 18:58:00,
2013-01-12 11:00:00,42.8,15.7,30.13,NNE,21,6.0,7.0,33,0.00,,SKC,0.00,VWS V14.00,2013-01-12 19:00:00,
2013-01-12 11:02:00,42.8,15.7,30.13,North,10,4.0,7.0,33,0.00,,SKC,0.00,VWS V14.00,2013-01-12 19:02:00,
2013-01-12 11:04:00,42.9,15.8,30.13,North,358,3.0,7.0,33,0.00,,SKC,0.00,VWS V14.00,2013-01-12 19:04:00,
2013-01-12 11:05:00,42.9,16.5,30.13,NNE,24,7.0,7.0,34,0.00,,SKC,0.00,VWS V14.00,2013-01-12 19:05:00,
2013-01-12 11:07:00,43.0,15.9,30.13,NNE,25,3.0,12.0,33,0.00,,SKC,0.00,VWS V14.00,2013-01-12 19:07:00,
2013-01-12 11:09:00,43.1,16.0,30.13,NNE,26,3.0,12.0,33,0.00,,SKC,0.00,VWS V14.00,2013-01-12 19:09:00,
2013-01-12 11:10:00,43.1,15.3,30.12,North,355,1.0,12.0,32,0.00,,SKC,0.00,VWS V14.00,2013-01-12 19:10:00,
2013-01-12 11:12:00,43.2,16.1,30.12,NE,51,3.0,12.0,33,0.00,,SKC,0.00,VWS V14.00,2013-01-12 19:12:00,
2013-01-12 11:14:00,43.3,17.5,30.12,NNE,15,2.0,12.0,35,0.00,,SKC,0.00,VWS V14.00,2013-01-12 19:14:00,
2013-01-12 11:16:00,43.5,17.7,30.12,NNE,20,2.0,12.0,35,0.00,,SKC,0.00,VWS V14.00,2013-01-12 19:16:00,
2013-01-12 11:17:00,43.6,17.8,30.12,North,356,4.0,12.0,35,0.00,,SKC,0.00,VWS V14.00,2013-01-12 19:17:00,
2013-01-12 11:19:00,43.7,16.5,30.12,NNE,25,2.0,12.0,33,0.00,,SKC,0.00,VWS V14.00,2013-01-12 19:19:00,
2013-01-12 11:21:00,43.8,17.3,30.12,NNW,348,8.0,12.0,34,0.00,,SKC,0.00,VWS V14.00,2013-01-12 19:21:00,
2013-01-12 11:22:00,43.8,17.3,30.12,ENE,61,6.0,12.0,34,0.00,,SKC,0.00,VWS V14.00,2013-01-12 19:22:00,
2013-01-12 11:23:00,43.8,16.6,30.12,NE,36,3.0,12.0,33,0.00,,SKC,0.00,VWS V14.00,2013-01-12 19:23:00,
2013-01-12 11:24:00,43.9,16.0,30.12,NW,324,5.0,12.0,32,0.00,,SKC,0.00,VWS V14.00,2013-01-12 19:24:00,
2013-01-12 11:26:00,44.0,16.8,30.12,NE,46,4.0,12.0,33,0.00,,SKC,0.00,VWS V14.00,2013-01-12 19:26:00,
2013-01-12 11:27:00,44.0,16.8,30.12,NE,49,5.0,12.0,33,0.00,,SKC,0.00,VWS V14.00,2013-01-12 19:27:00,
2013-01-12 11:28:00,44.0,16.0,30.12,NE,48,3.0,12.0,32,0.00,,SKC,0.00,VWS V14.00,2013-01-12 19:28:00,
2013-01-12 11:29:00,44.0,15.3,30.12,NNE,33,2.0,12.0,31,0.00,,SKC,0.00,VWS V14.00,2013-01-12 19:29:00,
2013-01-12 11:30:00,44.0,14.6,30.12,North,10,5.0,12.0,30,0.00,,SKC,0.00,VWS V14.00,2013-01-12 19:30:00,
2013-01-12 11:31:00,44.0,14.6,30.12,NNE,15,4.0,4.0,30,0.00,,SKC,0.00,VWS V14.00,2013-01-12 19:31:00,
2013-01-12 11:33:00,44.0,16.0,30.12,NNE,25,4.0,8.0,32,0.00,,SKC,0.00,VWS V14.00,2013-01-12 19:33:00,
2013-01-12 11:34:00,44.0,15.3,30.11,NNE,32,4.0,8.0,31,0.00,,SKC,0.00,VWS V14.00,2013-01-12 19:34:00,
2013-01-12 11:36:00,44.0,13.8,30.12,NE,36,4.0,8.0,29,0.00,,SKC,0.00,VWS V14.00,2013-01-12 19:36:00,
2013-01-12 11:38:00,44.0,13.8,30.11,NNE,22,5.0,8.0,29,0.00,,SKC,0.00,VWS V14.00,2013-01-12 19:38:00,
2013-01-12 11:39:00,44.0,14.6,30.11,NNE,21,1.0,8.0,30,0.00,,SKC,0.00,VWS V14.00,2013-01-12 19:39:00,
2013-01-12 11:41:00,44.1,14.7,30.11,North,9,3.0,8.0,30,0.00,,SKC,0.00,VWS V14.00,2013-01-12 19:41:00,
2013-01-12 11:43:00,44.2,16.2,30.11,NE,40,4.0,8.0,32,0.00,,SKC,0.00,VWS V14.00,2013-01-12 19:43:00,
2013-01-12 11:44:00,44.3,15.6,30.11,NNE,14,6.0,8.0,31,0.00,,SKC,0.00,VWS V14.00,2013-01-12 19:44:00,
2013-01-12 11:46:00,44.3,14.8,30.11,North,7,6.0,10.0,30,0.00,,SKC,0.00,VWS V14.00,2013-01-12 19:46:00,
2013-01-12 11:48:00,44.3,15.6,30.10,ENE,74,9.0,10.0,31,0.00,,SKC,0.00,VWS V14.00,2013-01-12 19:48:00,
2013-01-12 11:49:00,44.3,15.6,30.10,North,3,4.0,10.0,31,0.00,,SKC,0.00,VWS V14.00,2013-01-12 19:49:00,
2013-01-12 11:51:00,44.4,14.9,30.10,North,1,3.0,10.0,30,0.00,,SKC,0.00,VWS V14.00,2013-01-12 19:51:00,
2013-01-12 11:53:00,44.5,16.5,30.10,NE,38,2.0,10.0,32,0.00,,SKC,0.00,VWS V14.00,2013-01-12 19:53:00,
2013-01-12 11:54:00,44.6,15.9,30.10,North,360,6.0,13.0,31,0.00,,SKC,0.00,VWS V14.00,2013-01-12 19:54:00,
2013-01-12 11:56:00,44.7,15.2,30.10,NE,40,4.0,13.0,30,0.00,,SKC,0.00,VWS V14.00,2013-01-12 19:56:00,
2013-01-12 11:58:00,44.7,14.4,30.10,NNE,30,5.0,13.0,29,0.00,,SKC,0.00,VWS V14.00,2013-01-12 19:58:00,
2013-01-12 11:59:00,44.7,14.4,30.10,North,8,5.0,13.0,29,0.00,,SKC,0.00,VWS V14.00,2013-01-12 19:59:00,
2013-01-12 12:00:00,44.7,14.4,30.10,NNE,26,4.0,13.0,29,0.00,,SKC,0.00,VWS V14.00,2013-01-12 20:00:00,
2013-01-12 12:01:00,44.7,14.4,30.09,NE,48,8.0,8.0,29,0.00,,SKC,0.00,VWS V14.00,2013-01-12 20:01:00,
2013-01-12 12:03:00,44.7,15.9,30.09,North,9,6.0,8.0,31,0.00,,SKC,0.00,VWS V14.00,2013-01-12 20:03:00,
2013-01-12 12:04:00,44.7,14.4,30.09,NE,34,5.0,8.0,29,0.00,,SKC,0.00,VWS V14.00,2013-01-12 20:04:00,
2013-01-12 12:06:00,44.7,13.6,30.09,NE,45,4.0,10.0,28,0.00,,SKC,0.00,VWS V14.00,2013-01-12 20:06:00,
2013-01-12 12:08:00,44.7,14.4,30.09,NNE,14,4.0,10.0,29,0.00,,SKC,0.00,VWS V14.00,2013-01-12 20:08:00,
2013-01-12 12:09:00,44.7,14.4,30.09,NNE,16,4.0,10.0,29,0.00,,SKC,0.00,VWS V14.00,2013-01-12 20:09:00,
2013-01-12 12:11:00,44.7,14.4,30.09,NNE,19,4.0,10.0,29,0.00,,SKC,0.00,VWS V14.00,2013-01-12 20:11:00,
2013-01-12 12:13:00,44.7,15.2,30.09,NNE,27,4.0,10.0,30,0.00,,SKC,0.00,VWS V14.00,2013-01-12 20:13:00,
2013-01-12 12:15:00,44.9,14.6,30.09,NNE,19,8.0,10.0,29,0.00,,SKC,0.00,VWS V14.00,2013-01-12 20:15:00,
2013-01-12 12:16:00,44.9,14.6,30.09,NNE,23,5.0,10.0,29,0.00,,SKC,0.00,VWS V14.00,2013-01-12 20:16:00,
2013-01-12 12:18:00,45.0,16.2,30.09,North,2,4.0,10.0,31,0.00,,SKC,0.00,VWS V14.00,2013-01-12 20:18:00,
2013-01-12 12:20:00,45.0,14.7,30.09,NE,36,6.0,10.0,29,0.00,,SKC,0.00,VWS V14.00,2013-01-12 20:20:00,
2013-01-12 12:22:00,45.0,14.7,30.09,NNW,343,5.0,10.0,29,0.00,,SKC,0.00,VWS V14.00,2013-01-12 20:22:00,
2013-01-12 12:23:00,45.0,14.7,30.09,NNE,22,5.0,10.0,29,0.00,,SKC,0.00,VWS V14.00,2013-01-12 20:23:00,
2013-01-12 12:25:00,45.1,14.8,30.09,NE,40,3.0,10.0,29,0.00,,SKC,0.00,VWS V14.00,2013-01-12 20:25:00,
2013-01-12 12:27:00,45.1,15.5,30.08,North,6,4.0,10.0,30,0.00,,SKC,0.00,VWS V14.00,2013-01-12 20:27:00,
2013-01-12 12:28:00,45.2,15.6,30.08,NNE,18,5.0,10.0,30,0.00,,SKC,0.00,VWS V14.00,2013-01-12 20:28:00,
2013-01-12 12:30:00,45.3,14.9,30.08,NNE,27,3.0,6.0,29,0.00,,SKC,0.00,VWS V14.00,2013-01-12 20:30:00,
2013-01-12 12:32:00,45.4,15.0,30.08,North,11,1.0,6.0,29,0.00,,SKC,0.00,VWS V14.00,2013-01-12 20:32:00,
2013-01-12 12:33:00,45.4,15.8,30.08,NNE,14,3.0,6.0,30,0.00,,SKC,0.00,VWS V14.00,2013-01-12 20:33:00,
2013-01-12 12:35:00,45.5,15.1,30.08,NNE,32,3.0,6.0,29,0.00,,SKC,0.00,VWS V14.00,2013-01-12 20:35:00,
2013-01-12 12:37:00,45.6,16.0,30.08,NNE,25,3.0,6.0,30,0.00,,SKC,0.00,VWS V14.00,2013-01-12 20:37:00,
2013-01-12 12:38:00,45.6,15.2,30.08,NNE,27,4.0,6.0,29,0.00,,SKC,0.00,VWS V14.00,2013-01-12 20:38:00,
2013-01-12 12:39:00,45.5,14.3,30.08,North,2,5.0,6.0,28,0.00,,SKC,0.00,VWS V14.00,2013-01-12 20:39:00,
2013-01-12 12:40:00,45.5,14.3,30.08,NNE,23,3.0,6.0,28,0.00,,SKC,0.00,VWS V14.00,2013-01-12 20:40:00,
2013-01-12 12:42:00,45.5,15.1,30.08,NE,54,2.0,7.0,29,0.00,,SKC,0.00,VWS V14.00,2013-01-12 20:42:00,
2013-01-12 12:44:00,45.6,16.0,30.08,NNE,26,3.0,7.0,30,0.00,,SKC,0.00,VWS V14.00,2013-01-12 20:44:00,
2013-01-12 12:45:00,45.7,14.5,30.08,NNE,29,4.0,7.0,28,0.00,,SKC,0.00,VWS V14.00,2013-01-12 20:45:00,
2013-01-12 12:47:00,45.7,13.6,30.08,NE,37,1.0,7.0,27,0.00,,SKC,0.00,VWS V14.00,2013-01-12 20:47:00,
2013-01-12 12:49:00,45.8,15.4,30.08,NNE,23,2.0,7.0,29,0.00,,SKC,0.00,VWS V14.00,2013-01-12 20:49:00,
2013-01-12 12:50:00,45.8,16.1,30.07,NNE,32,3.0,7.0,30,0.00,,SKC,0.00,VWS V14.00,2013-01-12 20:50:00,
2013-01-12 12:52:00,45.9,13.8,30.07,NNE,25,2.0,7.0,27,0.00,,SKC,0.00,VWS V14.00,2013-01-12 20:52:00,
2013-01-12 12:54:00,45.9,14.6,30.07,NNE,27,2.0,7.0,28,0.00,,SKC,0.00,VWS V14.00,2013-01-12 20:54:00,
2013-01-12 12:55:00,45.9,14.6,30.07,NNE,12,1.0,7.0,28,0.00,,SKC,0.00,VWS V14.00,2013-01-12 20:55:00,
2013-01-12 12:58:00,46.0,15.5,30.07,NE,36,2.0,7.0,29,0.00,,SKC,0.00,VWS V14.00,2013-01-12 20:58:00,
2013-01-12 12:59:00,46.1,16.4,30.07,NNE,21,4.0,7.0,30,0.00,,SKC,0.00,VWS V14.00,2013-01-12 20:59:00,
2013-01-12 13:00:00,46.3,15.0,30.07,NNW,348,3.0,4.0,28,0.00,,SKC,0.00,VWS V14.00,2013-01-12 21:00:00,
2013-01-12 13:03:00,46.4,15.9,30.07,NNE,25,4.0,6.0,29,0.00,,SKC,0.00,VWS V14.00,2013-01-12 21:03:00,
2013-01-12 13:04:00,46.4,15.1,30.07,NNE,28,4.0,6.0,28,0.00,,SKC,0.00,VWS V14.00,2013-01-12 21:04:00,
2013-01-12 13:05:00,46.5,14.3,30.07,North,7,1.0,6.0,27,0.00,,SKC,0.00,VWS V14.00,2013-01-12 21:05:00,
2013-01-12 13:08:00,46.6,15.3,30.07,NNW,348,4.0,6.0,28,0.00,,SKC,0.00,VWS V14.00,2013-01-12 21:08:00,
2013-01-12 13:09:00,46.7,16.1,30.07,NNW,348,5.0,6.0,29,0.00,,SKC,0.00,VWS V14.00,2013-01-12 21:09:00,
2013-01-12 13:10:00,46.7,15.3,30.07,NNE,27,3.0,6.0,28,0.00,,SKC,0.00,VWS V14.00,2013-01-12 21:10:00,
2013-01-12 13:13:00,46.8,14.6,30.07,NNE,24,2.0,6.0,27,0.00,,SKC,0.00,VWS V14.00,2013-01-12 21:13:00,
2013-01-12 13:14:00,46.8,15.4,30.07,NE,36,1.0,6.0,28,0.00,,SKC,0.00,VWS V14.00,2013-01-12 21:14:00,
2013-01-12 13:15:00,46.7,15.3,30.07,NE,36,4.0,6.0,28,0.00,,SKC,0.00,VWS V14.00,2013-01-12 21:15:00,
2013-01-12 13:16:00,46.7,14.5,30.07,NNE,31,3.0,6.0,27,0.00,,SKC,0.00,VWS V14.00,2013-01-12 21:16:00,
2013-01-12 13:18:00,46.7,14.5,30.06,NE,42,4.0,8.0,27,0.00,,SKC,0.00,VWS V14.00,2013-01-12 21:18:00,
2013-01-12 13:19:00,46.7,14.5,30.06,NNE,28,4.0,8.0,27,0.00,,SKC,0.00,VWS V14.00,2013-01-12 21:19:00,
2013-01-12 13:20:00,46.7,15.3,30.06,NNE,27,4.0,8.0,28,0.00,,SKC,0.00,VWS V14.00,2013-01-12 21:20:00,
2013-01-12 13:21:00,46.7,14.5,30.06,North,360,2.0,8.0,27,0.00,,SKC,0.00,VWS V14.00,2013-01-12 21:21:00,
2013-01-12 13:23:00,46.8,16.2,30.06,NNE,26,2.0,8.0,29,0.00,,SKC,0.00,VWS V14.00,2013-01-12 21:23:00,
2013-01-12 13:25:00,46.9,15.5,30.06,NNE,30,3.0,10.0,28,0.00,,SKC,0.00,VWS V14.00,2013-01-12 21:25:00,
2013-01-12 13:26:00,46.9,15.5,30.06,NNE,27,3.0,10.0,28,0.00,,SKC,0.00,VWS V14.00,2013-01-12 21:26:00,
2013-01-12 13:28:00,46.7,14.5,30.06,NNE,30,2.0,10.0,27,0.00,,SKC,0.00,VWS V14.00,2013-01-12 21:28:00,
2013-01-12 13:30:00,46.7,13.6,30.06,NE,38,1.0,2.0,26,0.00,,SKC,0.00,VWS V14.00,2013-01-12 21:30:00,
2013-01-12 13:31:00,46.7,14.5,30.06,NE,38,3.0,3.0,27,0.00,,SKC,0.00,VWS V14.00,2013-01-12 21:31:00,
2013-01-12 13:34:00,46.5,14.3,30.06,NNE,15,3.0,6.0,27,0.00,,SKC,0.00,VWS V14.00,2013-01-12 21:34:00,
2013-01-12 13:35:00,46.5,14.3,30.06,North,360,1.0,6.0,27,0.00,,SKC,0.00,VWS V14.00,2013-01-12 21:35:00,
2013-01-12 13:36:00,46.5,14.3,30.06,North,360,0.0,6.0,27,0.00,,SKC,0.00,VWS V14.00,2013-01-12 21:36:00,
2013-01-12 13:39:00,46.5,16.0,30.06,NNE,22,4.0,6.0,29,0.00,,SKC,0.00,VWS V14.00,2013-01-12 21:39:00,
2013-01-12 13:40:00,46.4,14.2,30.06,NE,45,4.0,6.0,27,0.00,,SKC,0.00,VWS V14.00,2013-01-12 21:40:00,
2013-01-12 13:41:00,46.4,14.2,30.06,North,10,3.0,6.0,27,0.00,,SKC,0.00,VWS V14.00,2013-01-12 21:41:00,
2013-01-12 13:44:00,46.3,14.2,30.06,NNE,30,2.0,6.0,27,0.00,,SKC,0.00,VWS V14.00,2013-01-12 21:44:00,
2013-01-12 13:45:00,46.3,13.3,30.06,NE,48,6.0,6.0,26,0.00,,SKC,0.00,VWS V14.00,2013-01-12 21:45:00,
2013-01-12 13:46:00,46.3,13.3,30.06,NE,35,2.0,6.0,26,0.00,,SKC,0.00,VWS V14.00,2013-01-12 21:46:00,
2013-01-12 13:49:00,46.2,15.7,30.06,NE,34,3.0,6.0,29,0.00,,SKC,0.00,VWS V14.00,2013-01-12 21:49:00,
2013-01-12 13:50:00,46.2,15.7,30.06,NNE,32,1.0,6.0,29,0.00,,SKC,0.00,VWS V14.00,2013-01-12 21:50:00,
2013-01-12 13:51:00,46.2,14.9,30.06,NNE,19,6.0,7.0,28,0.00,,SKC,0.00,VWS V14.00,2013-01-12 21:51:00,
2013-01-12 13:54:00,46.1,14.8,30.06,NE,43,4.0,7.0,28,0.00,,SKC,0.00,VWS V14.00,2013-01-12 21:54:00,
2013-01-12 13:55:00,46.1,14.0,30.06,NNE,21,4.0,7.0,27,0.00,,SKC,0.00,VWS V14.00,2013-01-12 21:55:00,
2013-01-12 13:56:00,46.0,13.9,30.06,NNE,25,0.0,7.0,27,0.00,,SKC,0.00,VWS V14.00,2013-01-12 21:56:00,
2013-01-12 13:59:00,46.0,12.2,30.06,NNE,27,3.0,8.0,25,0.00,,SKC,0.00,VWS V14.00,2013-01-12 21:59:00,
2013-01-12 14:00:00,45.9,12.1,30.06,NNE,21,1.0,5.0,25,0.00,,SKC,0.00,VWS V14.00,2013-01-12 22:00:00,
2013-01-12 14:01:00,45.9,13.8,30.06,NNE,27,3.0,5.0,27,0.00,,SKC,0.00,VWS V14.00,2013-01-12 22:01:00,
2013-01-12 14:04:00,45.9,13.8,30.06,NE,34,3.0,5.0,27,0.00,,SKC,0.00,VWS V14.00,2013-01-12 22:04:00,
2013-01-12 14:06:00,45.9,13.8,30.06,NNE,28,3.0,5.0,27,0.00,,SKC,0.00,VWS V14.00,2013-01-12 22:06:00,
2013-01-12 14:09:00,45.9,14.6,30.06,NNE,14,3.0,6.0,28,0.00,,SKC,0.00,VWS V14.00,2013-01-12 22:09:00,
2013-01-12 14:11:00,45.9,13.8,30.06,NNE,19,3.0,6.0,27,0.00,,SKC,0.00,VWS V14.00,2013-01-12 22:11:00,
2013-01-12 14:14:00,46.0,13.9,30.06,NNE,23,2.0,6.0,27,0.00,,SKC,0.00,VWS V14.00,2013-01-12 22:14:00,
2013-01-12 14:16:00,46.0,14.7,30.06,ENE,57,3.0,6.0,28,0.00,,SKC,0.00,VWS V14.00,2013-01-12 22:16:00,
2013-01-12 14:19:00,46.1,14.8,30.06,NE,34,2.0,7.0,28,0.00,,SKC,0.00,VWS V14.00,2013-01-12 22:19:00,
2013-01-12 14:21:00,46.1,14.0,30.06,NNE,27,2.0,7.0,27,0.00,,SKC,0.00,VWS V14.00,2013-01-12 22:21:00,
2013-01-12 14:22:00,46.1,14.8,30.06,NNE,33,1.0,7.0,28,0.00,,SKC,0.00,VWS V14.00,2013-01-12 22:22:00,
2013-01-12 14:24:00,46.2,13.2,30.06,North,5,1.0,7.0,26,0.00,,SKC,0.00,VWS V14.00,2013-01-12 22:24:00,
2013-01-12 14:26:00,46.2,14.9,30.06,North,4,0.0,7.0,28,0.00,,SKC,0.00,VWS V14.00,2013-01-12 22:26:00,
2013-01-12 14:27:00,46.2,15.7,30.06,North,4,0.0,7.0,29,0.00,,SKC,0.00,VWS V14.00,2013-01-12 22:27:00,
2013-01-12 14:30:00,46.4,15.1,30.06,NE,36,3.0,4.0,28,0.00,,SKC,0.00,VWS V14.00,2013-01-12 22:30:00,
2013-01-12 14:31:00,46.4,14.2,30.06,NE,35,1.0,5.0,27,0.00,,SKC,0.00,VWS V14.00,2013-01-12 22:31:00,
2013-01-12 14:32:00,46.4,14.2,30.06,NNE,12,2.0,8.0,27,0.00,,SKC,0.00,VWS V14.00,2013-01-12 22:32:00,
2013-01-12 14:35:00,46.5,15.2,30.07,North,10,0.0,8.0,28,0.00,,SKC,0.00,VWS V14.00,2013-01-12 22:35:00,
2013-01-12 14:36:00,46.5,16.0,30.06,NNE,21,2.0,8.0,29,0.00,,SKC,0.00,VWS V14.00,2013-01-12 22:36:00,
2013-01-12 14:37:00,46.5,15.2,30.06,North,352,1.0,8.0,28,0.00,,SKC,0.00,VWS V14.00,2013-01-12 22:37:00,
2013-01-12 14:40:00,46.6,16.1,30.06,NW,325,0.0,8.0,29,0.00,,SKC,0.00,VWS V14.00,2013-01-12 22:40:00,
2013-01-12 14:41:00,46.6,16.1,30.06,North,356,0.0,8.0,29,0.00,,SKC,0.00,VWS V14.00,2013-01-12 22:41:00,
2013-01-12 14:42:00,46.7,16.1,30.06,North,356,0.0,8.0,29,0.00,,SKC,0.00,VWS V14.00,2013-01-12 22:42:00,
2013-01-12 14:45:00,46.6,15.3,30.06,North,355,3.0,8.0,28,0.00,,SKC,0.00,VWS V14.00,2013-01-12 22:45:00,
2013-01-12 14:46:00,46.6,15.3,30.06,NNW,348,1.0,8.0,28,0.00,,SKC,0.00,VWS V14.00,2013-01-12 22:46:00,
2013-01-12 14:47:00,46.6,14.4,30.06,NNW,348,0.0,8.0,27,0.00,,SKC,0.00,VWS V14.00,2013-01-12 22:47:00,
2013-01-12 14:50:00,46.6,15.3,30.06,NNE,32,2.0,8.0,28,0.00,,SKC,0.00,VWS V14.00,2013-01-12 22:50:00,
2013-01-12 14:52:00,46.6,15.3,30.06,North,352,2.0,8.0,28,0.00,,SKC,0.00,VWS V14.00,2013-01-12 22:52:00,
2013-01-12 14:55:00,46.5,16.0,30.06,NNE,29,2.0,8.0,29,0.00,,SKC,0.00,VWS V14.00,2013-01-12 22:55:00,
2013-01-12 14:57:00,46.5,16.0,30.06,ENE,65,7.0,8.0,29,0.00,,SKC,0.00,VWS V14.00,2013-01-12 22:57:00,
2013-01-12 15:00:00,46.3,14.2,30.06,NNE,25,4.0,5.0,27,0.00,,SKC,0.00,VWS V14.00,2013-01-12 23:00:00,
2013-01-12 15:02:00,46.2,14.1,30.06,NNE,33,2.0,5.0,27,0.00,,SKC,0.00,VWS V14.00,2013-01-12 23:02:00,
2013-01-12 15:05:00,46.0,14.7,30.06,NNE,15,2.0,7.0,28,0.00,,SKC,0.00,VWS V14.00,2013-01-12 23:05:00,
2013-01-12 15:07:00,45.9,14.6,30.06,NNE,13,3.0,7.0,28,0.00,,SKC,0.00,VWS V14.00,2013-01-12 23:07:00,
2013-01-12 15:10:00,45.7,15.3,30.06,North,360,2.0,7.0,29,0.00,,SKC,0.00,VWS V14.00,2013-01-12 23:10:00,
2013-01-12 15:12:00,45.6,15.2,30.06,North,2,3.0,7.0,29,0.00,,SKC,0.00,VWS V14.00,2013-01-12 23:12:00,
2013-01-12 15:16:00,45.6,16.0,30.06,North,9,4.0,7.0,30,0.00,,SKC,0.00,VWS V14.00,2013-01-12 23:16:00,
2013-01-12 15:17:00,45.6,14.4,30.06,North,11,2.0,7.0,28,0.00,,SKC,0.00,VWS V14.00,2013-01-12 23:17:00,
2013-01-12 15:21:00,45.5,14.3,30.06,North,359,3.0,8.0,28,0.00,,SKC,0.00,VWS V14.00,2013-01-12 23:21:00,
2013-01-12 15:22:00,45.5,15.1,30.06,NNE,20,4.0,8.0,29,0.00,,SKC,0.00,VWS V14.00,2013-01-12 23:22:00,
2013-01-12 15:26:00,45.4,15.0,30.07,NNE,22,5.0,8.0,29,0.00,,SKC,0.00,VWS V14.00,2013-01-12 23:26:00,
2013-01-12 15:27:00,45.4,15.0,30.07,NNE,25,3.0,8.0,29,0.00,,SKC,0.00,VWS V14.00,2013-01-12 23:27:00,
2013-01-12 15:30:00,45.3,15.7,30.07,NNE,12,3.0,8.0,30,0.00,,SKC,0.00,VWS V14.00,2013-01-12 23:30:00,
2013-01-12 15:31:00,45.3,15.7,30.07,NE,40,5.0,6.0,30,0.00,,SKC,0.00,VWS V14.00,2013-01-12 23:31:00,
2013-01-12 15:32:00,45.3,14.9,30.07,NNE,19,3.0,7.0,29,0.00,,SKC,0.00,VWS V14.00,2013-01-12 23:32:00,
2013-01-12 15:36:00,45.2,15.6,30.07,North,6,2.0,7.0,30,0.00,,SKC,0.00,VWS V14.00,2013-01-12 23:36:00,
2013-01-12 15:37:00,45.2,16.4,30.07,North,3,6.0,7.0,31,0.00,,SKC,0.00,VWS V14.00,2013-01-12 23:37:00,
2013-01-12 15:41:00,45.1,16.3,30.07,NNE,18,3.0,8.0,31,0.00,,SKC,0.00,VWS V14.00,2013-01-12 23:41:00,
2013-01-12 15:42:00,45.1,15.5,30.07,NNE,18,4.0,8.0,30,0.00,,SKC,0.00,VWS V14.00,2013-01-12 23:42:00,
2013-01-12 15:46:00,45.0,16.9,30.07,North,11,3.0,8.0,32,0.00,,SKC,0.00,VWS V14.00,2013-01-12 23:46:00,
2013-01-12 15:47:00,45.0,16.9,30.07,NE,36,5.0,8.0,32,0.00,,SKC,0.00,VWS V14.00,2013-01-12 23:47:00,
2013-01-12 15:48:00,45.0,16.9,30.07,NNE,26,5.0,8.0,32,0.00,,SKC,0.00,VWS V14.00,2013-01-12 23:48:00,
2013-01-12 15:51:00,44.9,16.8,30.07,North,8,2.0,8.0,32,0.00,,SKC,0.00,VWS V14.00,2013-01-12 23:51:00,
2013-01-12 15:52:00,44.9,16.8,30.07,North,2,2.0,8.0,32,0.00,,SKC,0.00,VWS V14.00,2013-01-12 23:52:00,
2013-01-12 15:56:00,44.9,16.8,30.07,North,359,2.0,8.0,32,0.00,,SKC,0.00,VWS V14.00,2013-01-12 23:56:00,
2013-01-12 15:57:00,44.8,16.8,30.07,North,5,1.0,8.0,32,0.00,,SKC,0.00,VWS V14.00,2013-01-12 23:57:00,
2013-01-12 15:58:00,44.8,16.8,30.07,North,5,1.0,8.0,32,0.00,,SKC,0.00,VWS V14.00,2013-01-12 23:58:00,
2013-01-12 16:00:00,44.8,17.5,30.07,NNE,17,0.0,8.0,33,0.00,,SKC,0.00,VWS V14.00,2013-01-13 00:00:00,
2013-01-12 16:01:00,44.8,17.5,30.07,NNE,22,2.0,5.0,33,0.00,,SKC,0.00,VWS V14.00,2013-01-13 00:01:00,
2013-01-12 16:03:00,44.7,17.4,30.07,North,2,1.0,6.0,33,0.00,,SKC,0.00,VWS V14.00,2013-01-13 00:03:00,
2013-01-12 16:06:00,44.7,16.7,30.07,NNW,338,4.0,6.0,32,0.00,,SKC,0.00,VWS V14.00,2013-01-13 00:06:00,
2013-01-12 16:08:00,44.6,17.3,30.07,North,9,1.0,6.0,33,0.00,,SKC,0.00,VWS V14.00,2013-01-13 00:08:00,
2013-01-12 16:12:00,44.5,16.5,30.07,North,352,1.0,7.0,32,0.00,,SKC,0.00,VWS V14.00,2013-01-13 00:12:00,
2013-01-12 16:13:00,44.5,16.5,30.07,North,354,1.0,7.0,32,0.00,,SKC,0.00,VWS V14.00,2013-01-13 00:13:00,
2013-01-12 16:17:00,44.5,16.5,30.07,North,9,0.0,7.0,32,0.00,,SKC,0.00,VWS V14.00,2013-01-13 00:17:00,
2013-01-12 16:18:00,44.5,16.5,30.06,North,9,0.0,7.0,32,0.00,,SKC,0.00,VWS V14.00,2013-01-13 00:18:00,
2013-01-12 16:22:00,44.4,16.4,30.07,North,9,0.0,7.0,32,0.00,,SKC,0.00,VWS V14.00,2013-01-13 00:22:00,
2013-01-12 16:23:00,44.3,17.0,30.07,North,9,0.0,7.0,33,0.00,,SKC,0.00,VWS V14.00,2013-01-13 00:23:00,
2013-01-12 16:27:00,44.2,16.2,30.07,NNE,14,2.0,7.0,32,0.00,,SKC,0.00,VWS V14.00,2013-01-13 00:27:00,
2013-01-12 16:28:00,44.2,16.2,30.07,NE,44,2.0,7.0,32,0.00,,SKC,0.00,VWS V14.00,2013-01-13 00:28:00,
2013-01-12 16:30:00,44.1,16.1,30.07,SE,129,1.0,7.0,32,0.00,,SKC,0.00,VWS V14.00,2013-01-13 00:30:00,
2013-01-12 16:32:00,44.0,14.6,30.06,SE,128,1.0,2.0,30,0.00,,SKC,0.00,VWS V14.00,2013-01-13 00:32:00,
2013-01-12 16:33:00,44.0,15.3,30.07,SE,127,4.0,4.0,31,0.00,,SKC,0.00,VWS V14.00,2013-01-13 00:33:00,
2013-01-12 16:34:00,43.9,14.5,30.07,SE,127,4.0,4.0,30,0.00,,SKC,0.00,VWS V14.00,2013-01-13 00:34:00,
2013-01-12 16:37:00,43.6,15.0,30.07,East,90,2.0,7.0,31,0.00,,SKC,0.00,VWS V14.00,2013-01-13 00:37:00,
2013-01-12 16:38:00,43.6,14.2,30.07,NE,38,2.0,7.0,30,0.00,,SKC,0.00,VWS V14.00,2013-01-13 00:38:00,
2013-01-12 16:39:00,43.5,14.9,30.07,NE,38,0.0,7.0,31,0.00,,SKC,0.00,VWS V14.00,2013-01-13 00:39:00,
2013-01-12 16:42:00,43.3,15.4,30.07,NE,35,3.0,7.0,32,0.00,,SKC,0.00,VWS V14.00,2013-01-13 00:42:00,
2013-01-12 16:43:00,43.2,14.6,30.07,NE,36,1.0,7.0,31,0.00,,SKC,0.00,VWS V14.00,2013-01-13 00:43:00,
2013-01-12 16:44:00,43.2,15.4,30.07,NE,36,3.0,7.0,32,0.00,,SKC,0.00,VWS V14.00,2013-01-13 00:44:00,
2013-01-12 16:48:00,42.9,15.8,30.07,NE,36,3.0,7.0,33,0.00,,SKC,0.00,VWS V14.00,2013-01-13 00:48:00,
2013-01-12 16:49:00,42.8,15.7,30.07,NNE,23,2.0,7.0,33,0.00,,SKC,0.00,VWS V14.00,2013-01-13 00:49:00,
2013-01-12 16:53:00,42.4,15.4,30.07,NNE,31,2.0,7.0,33,0.00,,SKC,0.00,VWS V14.00,2013-01-13 00:53:00,
2013-01-12 16:54:00,42.2,15.2,30.07,NNE,31,2.0,7.0,33,0.00,,SKC,0.00,VWS V14.00,2013-01-13 00:54:00,
2013-01-12 16:58:00,41.8,14.1,30.07,NE,49,5.0,7.0,32,0.00,,SKC,0.00,VWS V14.00,2013-01-13 00:58:00,
2013-01-12 16:59:00,41.7,14.7,30.07,NE,42,2.0,7.0,33,0.00,,SKC,0.00,VWS V14.00,2013-01-13 00:59:00,
2013-01-12 17:00:00,41.6,14.6,30.07,NNE,21,2.0,7.0,33,0.00,,SKC,0.00,VWS V14.00,2013-01-13 01:00:00,
2013-01-12 17:03:00,41.4,14.5,30.07,NNE,30,2.0,6.0,33,0.00,,SKC,0.00,VWS V14.00,2013-01-13 01:03:00,
2013-01-12 17:04:00,41.3,14.4,30.07,NNE,15,3.0,6.0,33,0.00,,SKC,0.00,VWS V14.00,2013-01-13 01:04:00,
2013-01-12 17:05:00,41.3,14.4,30.07,North,354,4.0,8.0,33,0.00,,SKC,0.00,VWS V14.00,2013-01-13 01:05:00,
2013-01-12 17:08:00,41.2,14.3,30.07,NNE,18,3.0,8.0,33,0.00,,SKC,0.00,VWS V14.00,2013-01-13 01:08:00,
2013-01-12 17:09:00,41.1,14.2,30.07,NNE,16,3.0,8.0,33,0.00,,SKC,0.00,VWS V14.00,2013-01-13 01:09:00,
2013-01-12 17:10:00,41.1,13.5,30.07,North,6,2.0,8.0,32,0.00,,SKC,0.00,VWS V14.00,2013-01-13 01:10:00,
2013-01-12 17:13:00,41.0,14.8,30.07,NNE,15,0.0,8.0,34,0.00,,SKC,0.00,VWS V14.00,2013-01-13 01:13:00,
2013-01-12 17:14:00,41.0,14.8,30.07,NNE,15,2.0,8.0,34,0.00,,SKC,0.00,VWS V14.00,2013-01-13 01:14:00,
2013-01-12 17:15:00,40.9,13.3,30.07,NNE,16,0.0,8.0,32,0.00,,SKC,0.00,VWS V14.00,2013-01-13 01:15:00,
2013-01-12 17:18:00,40.7,13.9,30.07,NNE,19,3.0,8.0,33,0.00,,SKC,0.00,VWS V14.00,2013-01-13 01:18:00,
2013-01-12 17:19:00,40.7,13.9,30.07,NNE,19,1.0,8.0,33,0.00,,SKC,0.00,VWS V14.00,2013-01-13 01:19:00,
2013-01-12 17:20:00,40.6,13.8,30.07,NNE,21,3.0,8.0,33,0.00,,SKC,0.00,VWS V14.00,2013-01-13 01:20:00,
2013-01-12 17:23:00,40.5,13.7,30.07,North,1,3.0,8.0,33,0.00,,SKC,0.00,VWS V14.00,2013-01-13 01:23:00,
2013-01-12 17:24:00,40.4,13.6,30.07,North,3,1.0,8.0,33,0.00,,SKC,0.00,VWS V14.00,2013-01-13 01:24:00,
2013-01-12 17:25:00,40.4,13.6,30.07,NNE,16,3.0,8.0,33,0.00,,SKC,0.00,VWS V14.00,2013-01-13 01:25:00,
2013-01-12 17:29:00,40.2,14.1,30.07,North,7,2.0,8.0,34,0.00,,SKC,0.00,VWS V14.00,2013-01-13 01:29:00,
2013-01-12 17:30:00,40.1,14.0,30.07,NNW,348,3.0,8.0,34,0.00,,SKC,0.00,VWS V14.00,2013-01-13 01:30:00,
2013-01-12 17:34:00,40.0,13.9,30.08,North,354,1.0,4.0,34,0.00,,SKC,0.00,VWS V14.00,2013-01-13 01:34:00,
2013-01-12 17:35:00,39.9,13.8,30.08,NE,46,3.0,4.0,34,0.00,,SKC,0.00,VWS V14.00,2013-01-13 01:35:00,
2013-01-12 17:39:00,39.7,13.6,30.08,North,357,3.0,6.0,34,0.00,,SKC,0.00,VWS V14.00,2013-01-13 01:39:00,
2013-01-12 17:40:00,39.7,14.3,30.08,North,2,2.0,6.0,35,0.00,,SKC,0.00,VWS V14.00,2013-01-13 01:40:00,
2013-01-12 17:44:00,39.5,13.5,30.08,North,9,4.0,7.0,34,0.00,,SKC,0.00,VWS V14.00,2013-01-13 01:44:00,
2013-01-12 17:45:00,39.5,14.1,30.08,NNE,18,3.0,7.0,35,0.00,,SKC,0.00,VWS V14.00,2013-01-13 01:45:00,
2013-01-12 17:49:00,39.5,13.5,30.08,NNE,28,3.0,10.0,34,0.00,,SKC,0.00,VWS V14.00,2013-01-13 01:49:00,
2013-01-12 17:50:00,39.6,13.6,30.08,North,2,4.0,10.0,34,0.00,,SKC,0.00,VWS V14.00,2013-01-13 01:50:00,
2013-01-12 17:54:00,39.6,14.2,30.09,North,11,3.0,13.0,35,0.00,,SKC,0.00,VWS V14.00,2013-01-13 01:54:00,
2013-01-12 17:55:00,39.6,14.2,30.09,NNE,13,1.0,13.0,35,0.00,,SKC,0.00,VWS V14.00,2013-01-13 01:55:00,
2013-01-12 17:59:00,39.5,14.1,30.09,North,11,5.0,13.0,35,0.00,,SKC,0.00,VWS V14.00,2013-01-13 01:59:00,
2013-01-12 18:00:00,39.5,14.1,30.09,NNE,32,5.0,5.0,35,0.00,,SKC,0.00,VWS V14.00,2013-01-13 02:00:00,
2013-01-12 18:01:00,39.5,13.5,30.09,NE,56,5.0,5.0,34,0.00,,SKC,0.00,VWS V14.00,2013-01-13 02:01:00,
2013-01-12 18:04:00,39.4,14.0,30.09,NNE,17,1.0,7.0,35,0.00,,SKC,0.00,VWS V14.00,2013-01-13 02:04:00,
2013-01-12 18:05:00,39.3,13.9,30.09,NNE,33,3.0,7.0,35,0.00,,SKC,0.00,VWS V14.00,2013-01-13 02:05:00,
2013-01-12 18:06:00,39.3,13.9,30.09,NE,37,4.0,7.0,35,0.00,,SKC,0.00,VWS V14.00,2013-01-13 02:06:00,
2013-01-12 18:09:00,39.2,13.9,30.09,NE,48,2.0,7.0,35,0.00,,SKC,0.00,VWS V14.00,2013-01-13 02:09:00,
2013-01-12 18:10:00,39.2,13.9,30.09,NNE,18,3.0,7.0,35,0.00,,SKC,0.00,VWS V14.00,2013-01-13 02:10:00,
2013-01-12 18:11:00,39.2,13.9,30.09,North,357,4.0,7.0,35,0.00,,SKC,0.00,VWS V14.00,2013-01-13 02:11:00,
2013-01-12 18:14:00,39.1,13.8,30.09,NNE,32,3.0,7.0,35,0.00,,SKC,0.00,VWS V14.00,2013-01-13 02:14:00,
2013-01-12 18:15:00,39.1,13.8,30.09,NNE,29,3.0,7.0,35,0.00,,SKC,0.00,VWS V14.00,2013-01-13 02:15:00,
2013-01-12 18:16:00,39.0,13.7,30.09,NNE,32,3.0,7.0,35,0.00,,SKC,0.00,VWS V14.00,2013-01-13 02:16:00,
2013-01-12 18:19:00,38.9,13.6,30.09,NNE,26,2.0,7.0,35,0.00,,SKC,0.00,VWS V14.00,2013-01-13 02:19:00,
2013-01-12 18:20:00,38.9,13.6,30.09,NNE,25,1.0,7.0,35,0.00,,SKC,0.00,VWS V14.00,2013-01-13 02:20:00,
2013-01-12 18:21:00,38.9,13.6,30.09,NNE,25,0.0,7.0,35,0.00,,SKC,0.00,VWS V14.00,2013-01-13 02:21:00,
2013-01-12 18:24:00,38.7,13.4,30.10,NNE,25,1.0,7.0,35,0.00,,SKC,0.00,VWS V14.00,2013-01-13 02:24:00,
2013-01-12 18:25:00,38.7,13.4,30.10,NNE,25,2.0,7.0,35,0.00,,SKC,0.00,VWS V14.00,2013-01-13 02:25:00,
2013-01-12 18:26:00,38.7,13.4,30.10,NNE,25,1.0,7.0,35,0.00,,SKC,0.00,VWS V14.00,2013-01-13 02:26:00,
2013-01-12 18:29:00,38.5,13.2,30.09,NNE,25,2.0,7.0,35,0.00,,SKC,0.00,VWS V14.00,2013-01-13 02:29:00,
2013-01-12 18:30:00,38.5,13.9,30.09,NNE,29,2.0,3.0,36,0.00,,SKC,0.00,VWS V14.00,2013-01-13 02:30:00,
2013-01-12 18:31:00,38.5,13.9,30.09,North,358,4.0,4.0,36,0.00,,SKC,0.00,VWS V14.00,2013-01-13 02:31:00,
2013-01-12 18:35:00,38.4,13.8,30.09,North,4,7.0,7.0,36,0.00,,SKC,0.00,VWS V14.00,2013-01-13 02:35:00,
2013-01-12 18:36:00,38.4,13.8,30.09,North,357,2.0,7.0,36,0.00,,SKC,0.00,VWS V14.00,2013-01-13 02:36:00,
2013-01-12 18:40:00,38.3,13.7,30.09,NNE,18,4.0,7.0,36,0.00,,SKC,0.00,VWS V14.00,2013-01-13 02:40:00,
2013-01-12 18:41:00,38.3,14.3,30.09,North,352,3.0,7.0,37,0.00,,SKC,0.00,VWS V14.00,2013-01-13 02:41:00,
2013-01-12 18:45:00,38.2,14.2,30.09,North,360,3.0,8.0,37,0.00,,SKC,0.00,VWS V14.00,2013-01-13 02:45:00,
2013-01-12 18:46:00,38.2,14.2,30.09,North,3,3.0,9.0,37,0.00,,SKC,0.00,VWS V14.00,2013-01-13 02:46:00,
2013-01-12 18:50:00,38.1,14.1,30.09,North,360,6.0,9.0,37,0.00,,SKC,0.00,VWS V14.00,2013-01-13 02:50:00,
2013-01-12 18:51:00,38.0,14.1,30.09,North,3,2.0,9.0,37,0.00,,SKC,0.00,VWS V14.00,2013-01-13 02:51:00,
2013-01-12 18:55:00,37.9,14.0,30.09,North,11,5.0,9.0,37,0.00,,SKC,0.00,VWS V14.00,2013-01-13 02:55:00,
2013-01-12 18:56:00,37.9,14.0,30.09,NNE,23,5.0,9.0,37,0.00,,SKC,0.00,VWS V14.00,2013-01-13 02:56:00,
2013-01-12 18:57:00,37.9,14.0,30.09,NNE,13,5.0,9.0,37,0.00,,SKC,0.00,VWS V14.00,2013-01-13 02:57:00,
2013-01-12 19:00:00,38.2,13.6,30.09,NNE,17,4.0,6.0,36,0.00,,SKC,0.00,VWS V14.00,2013-01-13 03:00:00,
2013-01-12 19:01:00,38.3,13.7,30.09,North,9,4.0,6.0,36,0.00,,SKC,0.00,VWS V14.00,2013-01-13 03:01:00,
2013-01-12 19:02:00,38.3,13.7,30.09,NNE,19,4.0,7.0,36,0.00,,SKC,0.00,VWS V14.00,2013-01-13 03:02:00,
2013-01-12 19:05:00,38.5,13.2,30.09,North,352,8.0,9.0,35,0.00,,SKC,0.00,VWS V14.00,2013-01-13 03:05:00,
2013-01-12 19:06:00,38.5,13.2,30.09,NNE,15,5.0,9.0,35,0.00,,SKC,0.00,VWS V14.00,2013-01-13 03:06:00,
2013-01-12 19:07:00,38.6,13.3,30.09,NNE,13,5.0,9.0,35,0.00,,SKC,0.00,VWS V14.00,2013-01-13 03:07:00,
2013-01-12 19:11:00,38.8,13.5,30.09,North,6,3.0,9.0,35,0.00,,SKC,0.00,VWS V14.00,2013-01-13 03:11:00,
2013-01-12 19:12:00,38.8,13.5,30.09,North,9,2.0,9.0,35,0.00,,SKC,0.00,VWS V14.00,2013-01-13 03:12:00,
2013-01-12 19:16:00,38.7,14.1,30.09,NNE,25,2.0,9.0,36,0.00,,SKC,0.00,VWS V14.00,2013-01-13 03:16:00,
2013-01-12 19:17:00,38.6,13.3,30.09,North,2,4.0,9.0,35,0.00,,SKC,0.00,VWS V14.00,2013-01-13 03:17:00,
2013-01-12 19:21:00,38.5,13.2,30.09,North,359,5.0,9.0,35,0.00,,SKC,0.00,VWS V14.00,2013-01-13 03:21:00,
2013-01-12 19:22:00,38.5,13.9,30.09,North,9,4.0,9.0,36,0.00,,SKC,0.00,VWS V14.00,2013-01-13 03:22:00,
2013-01-12 19:26:00,38.3,14.3,30.10,North,357,3.0,11.0,37,0.00,,SKC,0.00,VWS V14.00,2013-01-13 03:26:00,
2013-01-12 19:27:00,38.3,14.3,30.09,NNE,29,5.0,11.0,37,0.00,,SKC,0.00,VWS V14.00,2013-01-13 03:27:00,
2013-01-12 19:30:00,38.1,14.1,30.09,NNE,29,4.0,11.0,37,0.00,,SKC,0.00,VWS V14.00,2013-01-13 03:30:00,
2013-01-12 19:31:00,38.0,14.1,30.09,North,5,4.0,6.0,37,0.00,,SKC,0.00,VWS V14.00,2013-01-13 03:31:00,
2013-01-12 19:32:00,38.0,14.1,30.09,North,9,5.0,6.0,37,0.00,,SKC,0.00,VWS V14.00,2013-01-13 03:32:00,
2013-01-12 19:36:00,37.9,14.0,30.09,North,11,5.0,8.0,37,0.00,,SKC,0.00,VWS V14.00,2013-01-13 03:36:00,
2013-01-12 19:37:00,37.9,14.0,30.09,North,359,5.0,11.0,37,0.00,,SKC,0.00,VWS V14.00,2013-01-13 03:37:00,
2013-01-12 19:41:00,37.7,13.8,30.09,NNW,328,4.0,11.0,37,0.00,,SKC,0.00,VWS V14.00,2013-01-13 03:41:00,
2013-01-12 19:42:00,37.7,13.8,30.09,NNW,338,4.0,11.0,37,0.00,,SKC,0.00,VWS V14.00,2013-01-13 03:42:00,
2013-01-12 19:46:00,37.5,13.6,30.09,NNW,329,7.0,12.0,37,0.00,,SKC,0.00,VWS V14.00,2013-01-13 03:46:00,
2013-01-12 19:47:00,37.5,13.6,30.09,NNW,348,4.0,12.0,37,0.00,,SKC,0.00,VWS V14.00,2013-01-13 03:47:00,
2013-01-12 19:51:00,37.6,13.7,30.09,North,356,7.0,12.0,37,0.00,,SKC,0.00,VWS V14.00,2013-01-13 03:51:00,
2013-01-12 19:52:00,37.6,13.7,30.09,North,360,4.0,12.0,37,0.00,,SKC,0.00,VWS V14.00,2013-01-13 03:52:00,
2013-01-12 19:56:00,37.7,13.2,30.09,North,356,9.0,12.0,36,0.00,,SKC,0.00,VWS V14.00,2013-01-13 03:56:00,
2013-01-12 19:57:00,37.7,13.2,30.10,North,7,3.0,12.0,36,0.00,,SKC,0.00,VWS V14.00,2013-01-13 03:57:00,
2013-01-12 20:00:00,37.8,13.3,30.10,NNE,28,4.0,12.0,36,0.00,,SKC,0.00,VWS V14.00,2013-01-13 04:00:00,
2013-01-12 20:01:00,37.9,13.4,30.10,NNW,338,12.0,12.0,36,0.00,,SKC,0.00,VWS V14.00,2013-01-13 04:01:00,
2013-01-12 20:02:00,37.9,13.4,30.10,NNE,22,4.0,12.0,36,0.00,,SKC,0.00,VWS V14.00,2013-01-13 04:02:00,
2013-01-12 20:03:00,37.9,13.4,30.10,NNW,348,6.0,12.0,36,0.00,,SKC,0.00,VWS V14.00,2013-01-13 04:03:00,
2013-01-12 20:06:00,38.0,13.4,30.09,NNE,14,6.0,12.0,36,0.00,,SKC,0.00,VWS V14.00,2013-01-13 04:06:00,
2013-01-12 20:07:00,38.0,13.4,30.10,North,2,4.0,12.0,36,0.00,,SKC,0.00,VWS V14.00,2013-01-13 04:07:00,
2013-01-12 20:08:00,38.0,13.4,30.10,NNE,19,4.0,12.0,36,0.00,,SKC,0.00,VWS V14.00,2013-01-13 04:08:00,
2013-01-12 20:11:00,38.0,13.4,30.09,NNE,15,8.0,12.0,36,0.00,,SKC,0.00,VWS V14.00,2013-01-13 04:11:00,
2013-01-12 20:12:00,38.0,13.4,30.09,North,358,8.0,12.0,36,0.00,,SKC,0.00,VWS V14.00,2013-01-13 04:12:00,
2013-01-12 20:13:00,38.0,13.4,30.09,NNW,343,5.0,12.0,36,0.00,,SKC,0.00,VWS V14.00,2013-01-13 04:13:00,
2013-01-12 20:16:00,37.9,13.4,30.09,NNE,19,6.0,12.0,36,0.00,,SKC,0.00,VWS V14.00,2013-01-13 04:16:00,
2013-01-12 20:17:00,37.9,13.4,30.09,NNW,338,8.0,12.0,36,0.00,,SKC,0.00,VWS V14.00,2013-01-13 04:17:00,
2013-01-12 20:18:00,37.9,13.4,30.09,North,356,7.0,12.0,36,0.00,,SKC,0.00,VWS V14.00,2013-01-13 04:18:00,
2013-01-12 20:21:00,37.8,13.3,30.09,NNE,27,3.0,13.0,36,0.00,,SKC,0.00,VWS V14.00,2013-01-13 04:21:00,
2013-01-12 20:22:00,37.9,13.4,30.09,NNE,27,5.0,14.0,36,0.00,,SKC,0.00,VWS V14.00,2013-01-13 04:22:00,
2013-01-12 20:23:00,37.8,13.3,30.09,NNE,19,4.0,14.0,36,0.00,,SKC,0.00,VWS V14.00,2013-01-13 04:23:00,
2013-01-12 20:27:00,37.8,13.3,30.09,NNE,19,3.0,14.0,36,0.00,,SKC,0.00,VWS V14.00,2013-01-13 04:27:00,
2013-01-12 20:28:00,37.8,13.3,30.10,North,7,3.0,14.0,36,0.00,,SKC,0.00,VWS V14.00,2013-01-13 04:28:00,
2013-01-12 20:30:00,37.8,13.3,30.10,NNE,13,11.0,14.0,36,0.00,,SKC,0.00,VWS V14.00,2013-01-13 04:30:00,
2013-01-12 20:32:00,37.8,13.3,30.10,NNE,19,9.0,17.0,36,0.00,,SKC,0.00,VWS V14.00,2013-01-13 04:32:00,
2013-01-12 20:33:00,37.8,13.3,30.10,NNE,12,3.0,17.0,36,0.00,,SKC,0.00,VWS V14.00,2013-01-13 04:33:00,
2013-01-12 20:37:00,37.8,13.9,30.10,North,2,10.0,17.0,37,0.00,,SKC,0.00,VWS V14.00,2013-01-13 04:37:00,
2013-01-12 20:38:00,37.7,13.8,30.10,North,7,6.0,17.0,37,0.00,,SKC,0.00,VWS V14.00,2013-01-13 04:38:00,
2013-01-12 20:39:00,37.7,13.2,30.10,North,11,5.0,17.0,36,0.00,,SKC,0.00,VWS V14.00,2013-01-13 04:39:00,
2013-01-12 20:42:00,37.7,13.8,30.11,North,355,5.0,17.0,37,0.00,,SKC,0.00,VWS V14.00,2013-01-13 04:42:00,
2013-01-12 20:43:00,37.7,13.8,30.11,North,10,10.0,17.0,37,0.00,,SKC,0.00,VWS V14.00,2013-01-13 04:43:00,
2013-01-12 20:44:00,37.6,13.7,30.11,North,10,7.0,17.0,37,0.00,,SKC,0.00,VWS V14.00,2013-01-13 04:44:00,
2013-01-12 20:47:00,37.6,13.7,30.11,North,360,6.0,17.0,37,0.00,,SKC,0.00,VWS V14.00,2013-01-13 04:47:00,
2013-01-12 20:48:00,37.5,13.6,30.11,North,8,5.0,17.0,37,0.00,,SKC,0.00,VWS V14.00,2013-01-13 04:48:00,
2013-01-12 20:49:00,37.5,13.6,30.11,NNE,32,4.0,17.0,37,0.00,,SKC,0.00,VWS V14.00,2013-01-13 04:49:00,
2013-01-12 20:52:00,37.5,13.6,30.11,North,358,6.0,17.0,37,0.00,,SKC,0.00,VWS V14.00,2013-01-13 04:52:00,
2013-01-12 20:53:00,37.5,13.6,30.11,NNE,15,10.0,17.0,37,0.00,,SKC,0.00,VWS V14.00,2013-01-13 04:53:00,
2013-01-12 20:54:00,37.5,13.6,30.11,NNE,20,8.0,17.0,37,0.00,,SKC,0.00,VWS V14.00,2013-01-13 04:54:00,
2013-01-12 20:57:00,37.5,14.2,30.11,NNE,17,4.0,17.0,38,0.00,,SKC,0.00,VWS V14.00,2013-01-13 04:57:00,
2013-01-12 20:58:00,37.5,13.6,30.11,North,7,6.0,17.0,37,0.00,,SKC,0.00,VWS V14.00,2013-01-13 04:58:00,
2013-01-12 20:59:00,37.5,13.6,30.11,NNE,25,7.0,17.0,37,0.00,,SKC,0.00,VWS V14.00,2013-01-13 04:59:00,
2013-01-12 21:00:00,37.4,13.5,30.11,North,7,6.0,7.0,37,0.00,,SKC,0.00,VWS V14.00,2013-01-13 05:00:00,
2013-01-12 21:01:00,37.4,13.5,30.11,NNE,19,4.0,10.0,37,0.00,,SKC,0.00,VWS V14.00,2013-01-13 05:01:00,
2013-01-12 21:02:00,37.4,14.1,30.11,North,358,6.0,10.0,38,0.00,,SKC,0.00,VWS V14.00,2013-01-13 05:02:00,
2013-01-12 21:03:00,37.4,14.1,30.12,NNE,22,5.0,10.0,38,0.00,,SKC,0.00,VWS V14.00,2013-01-13 05:03:00,
2013-01-12 21:05:00,37.4,14.1,30.11,North,358,7.0,11.0,38,0.00,,SKC,0.00,VWS V14.00,2013-01-13 05:05:00,
2013-01-12 21:06:00,37.4,13.5,30.12,North,2,6.0,11.0,37,0.00,,SKC,0.00,VWS V14.00,2013-01-13 05:06:00,
2013-01-12 21:07:00,37.4,13.5,30.11,North,1,7.0,11.0,37,0.00,,SKC,0.00,VWS V14.00,2013-01-13 05:07:00,
2013-01-12 21:08:00,37.4,14.1,30.11,NNE,14,6.0,11.0,38,0.00,,SKC,0.00,VWS V14.00,2013-01-13 05:08:00,
2013-01-12 21:10:00,37.4,13.5,30.12,North,354,4.0,13.0,37,0.00,,SKC,0.00,VWS V14.00,2013-01-13 05:10:00,
2013-01-12 21:12:00,37.4,14.1,30.12,North,10,6.0,13.0,38,0.00,,SKC,0.00,VWS V14.00,2013-01-13 05:12:00,
2013-01-12 21:13:00,37.4,13.5,30.12,North,10,4.0,13.0,37,0.00,,SKC,0.00,VWS V14.00,2013-01-13 05:13:00,
2013-01-12 21:15:00,37.4,13.5,30.12,North,354,11.0,13.0,37,0.00,,SKC,0.00,VWS V14.00,2013-01-13 05:15:00,
2013-01-12 21:17:00,37.3,13.4,30.12,NNW,348,8.0,13.0,37,0.00,,SKC,0.00,VWS V14.00,2013-01-13 05:17:00,
2013-01-12 21:18:00,37.4,13.5,30.12,North,4,3.0,13.0,37,0.00,,SKC,0.00,VWS V14.00,2013-01-13 05:18:00,
2013-01-12 21:21:00,37.3,13.4,30.12,North,354,4.0,13.0,37,0.00,,SKC,0.00,VWS V14.00,2013-01-13 05:21:00,
2013-01-12 21:22:00,37.3,13.4,30.12,North,360,9.0,13.0,37,0.00,,SKC,0.00,VWS V14.00,2013-01-13 05:22:00,
2013-01-12 21:23:00,37.3,13.4,30.12,NNW,343,10.0,13.0,37,0.00,,SKC,0.00,VWS V14.00,2013-01-13 05:23:00,
2013-01-12 21:26:00,37.3,13.4,30.12,North,7,3.0,13.0,37,0.00,,SKC,0.00,VWS V14.00,2013-01-13 05:26:00,
2013-01-12 21:27:00,37.3,13.4,30.12,NNW,348,5.0,13.0,37,0.00,,SKC,0.00,VWS V14.00,2013-01-13 05:27:00,
2013-01-12 21:28:00,37.3,13.4,30.12,North,3,5.0,13.0,37,0.00,,SKC,0.00,VWS V14.00,2013-01-13 05:28:00,
2013-01-12 21:30:00,37.2,13.3,30.12,North,4,4.0,13.0,37,0.00,,SKC,0.00,VWS V14.00,2013-01-13 05:30:00,
2013-01-12 21:31:00,37.2,13.3,30.12,NNE,12,6.0,8.0,37,0.00,,SKC,0.00,VWS V14.00,2013-01-13 05:31:00,
2013-01-12 21:32:00,37.2,13.3,30.12,NNW,343,5.0,8.0,37,0.00,,SKC,0.00,VWS V14.00,2013-01-13 05:32:00,
2013-01-12 21:33:00,37.2,13.3,30.12,North,359,5.0,9.0,37,0.00,,SKC,0.00,VWS V14.00,2013-01-13 05:33:00,
2013-01-12 21:36:00,37.1,13.2,30.12,NNW,343,5.0,12.0,37,0.00,,SKC,0.00,VWS V14.00,2013-01-13 05:36:00,
2013-01-12 21:37:00,37.1,13.9,30.12,NNW,348,8.0,12.0,38,0.00,,SKC,0.00,VWS V14.00,2013-01-13 05:37:00,
2013-01-12 21:38:00,37.1,13.9,30.12,North,9,4.0,12.0,38,0.00,,SKC,0.00,VWS V14.00,2013-01-13 05:38:00,
2013-01-12 21:41:00,37.0,13.2,30.12,North,8,5.0,12.0,37,0.00,,SKC,0.00,VWS V14.00,2013-01-13 05:41:00,
2013-01-12 21:42:00,37.0,13.2,30.13,NNW,348,8.0,12.0,37,0.00,,SKC,0.00,VWS V14.00,2013-01-13 05:42:00,
2013-01-12 21:43:00,37.0,13.2,30.13,North,356,2.0,12.0,37,0.00,,SKC,0.00,VWS V14.00,2013-01-13 05:43:00,
2013-01-12 21:46:00,37.0,13.2,30.13,North,359,4.0,12.0,37,0.00,,SKC,0.00,VWS V14.00,2013-01-13 05:46:00,
2013-01-12 21:47:00,37.0,13.2,30.13,NNE,22,5.0,12.0,37,0.00,,SKC,0.00,VWS V14.00,2013-01-13 05:47:00,
2013-01-12 21:48:00,36.9,13.1,30.13,North,9,6.0,12.0,37,0.00,,SKC,0.00,VWS V14.00,2013-01-13 05:48:00,
2013-01-12 21:49:00,36.9,13.1,30.13,North,360,7.0,12.0,37,0.00,,SKC,0.00,VWS V14.00,2013-01-13 05:49:00,
2013-01-12 21:51:00,36.9,13.1,30.13,North,355,3.0,12.0,37,0.00,,SKC,0.00,VWS V14.00,2013-01-13 05:51:00,
2013-01-12 21:53:00,36.9,13.1,30.13,North,356,3.0,12.0,37,0.00,,SKC,0.00,VWS V14.00,2013-01-13 05:53:00,
2013-01-12 21:54:00,36.9,13.1,30.13,North,356,3.0,12.0,37,0.00,,SKC,0.00,VWS V14.00,2013-01-13 05:54:00,
2013-01-12 21:56:00,36.8,13.6,30.13,NNW,343,1.0,12.0,38,0.00,,SKC,0.00,VWS V14.00,2013-01-13 05:56:00,
2013-01-12 21:58:00,36.8,13.6,30.13,North,2,3.0,12.0,38,0.00,,SKC,0.00,VWS V14.00,2013-01-13 05:58:00,
2013-01-12 21:59:00,36.7,13.5,30.13,North,2,3.0,12.0,38,0.00,,SKC,0.00,VWS V14.00,2013-01-13 05:59:00,
2013-01-12 22:00:00,36.7,12.9,30.13,NNW,343,4.0,12.0,37,0.00,,SKC,0.00,VWS V14.00,2013-01-13 06:00:00,
2013-01-12 22:02:00,36.6,13.4,30.13,North,360,4.0,6.0,38,0.00,,SKC,0.00,VWS V14.00,2013-01-13 06:02:00,
2013-01-12 22:03:00,36.6,13.4,30.13,North,1,4.0,6.0,38,0.00,,SKC,0.00,VWS V14.00,2013-01-13 06:03:00,
2013-01-12 22:04:00,36.5,13.3,30.13,North,354,4.0,6.0,38,0.00,,SKC,0.00,VWS V14.00,2013-01-13 06:04:00,
2013-01-12 22:07:00,36.5,13.3,30.13,North,7,4.0,7.0,38,0.00,,SKC,0.00,VWS V14.00,2013-01-13 06:07:00,
2013-01-12 22:08:00,36.5,13.3,30.13,North,8,3.0,7.0,38,0.00,,SKC,0.00,VWS V14.00,2013-01-13 06:08:00,
2013-01-12 22:09:00,36.4,13.2,30.13,North,8,3.0,7.0,38,0.00,,SKC,0.00,VWS V14.00,2013-01-13 06:09:00,
2013-01-12 22:12:00,36.3,13.1,30.13,NNE,28,5.0,7.0,38,0.00,,SKC,0.00,VWS V14.00,2013-01-13 06:12:00,
2013-01-12 22:13:00,36.3,13.1,30.13,North,360,4.0,7.0,38,0.00,,SKC,0.00,VWS V14.00,2013-01-13 06:13:00,
2013-01-12 22:14:00,36.3,13.1,30.14,North,1,2.0,7.0,38,0.00,,SKC,0.00,VWS V14.00,2013-01-13 06:14:00,
2013-01-12 22:17:00,36.3,13.1,30.13,North,5,4.0,7.0,38,0.00,,SKC,0.00,VWS V14.00,2013-01-13 06:17:00,
2013-01-12 22:18:00,36.3,13.1,30.13,North,358,4.0,7.0,38,0.00,,SKC,0.00,VWS V14.00,2013-01-13 06:18:00,
2013-01-12 22:19:00,36.3,13.1,30.13,North,358,0.0,7.0,38,0.00,,SKC,0.00,VWS V14.00,2013-01-13 06:19:00,
2013-01-12 22:22:00,36.3,12.5,30.13,North,5,6.0,9.0,37,0.00,,SKC,0.00,VWS V14.00,2013-01-13 06:22:00,
2013-01-12 22:23:00,36.3,12.5,30.13,NNW,333,9.0,9.0,37,0.00,,SKC,0.00,VWS V14.00,2013-01-13 06:23:00,
2013-01-12 22:24:00,36.3,12.5,30.13,North,356,4.0,9.0,37,0.00,,SKC,0.00,VWS V14.00,2013-01-13 06:24:00,
2013-01-12 22:27:00,36.4,12.6,30.13,NNW,348,2.0,9.0,37,0.00,,SKC,0.00,VWS V14.00,2013-01-13 06:27:00,
2013-01-12 22:29:00,36.4,12.6,30.13,North,4,5.0,9.0,37,0.00,,SKC,0.00,VWS V14.00,2013-01-13 06:29:00,
2013-01-12 22:30:00,36.4,12.6,30.13,NNE,12,3.0,9.0,37,0.00,,SKC,0.00,VWS V14.00,2013-01-13 06:30:00,
2013-01-12 22:32:00,36.5,12.7,30.13,North,352,5.0,5.0,37,0.00,,SKC,0.00,VWS V14.00,2013-01-13 06:32:00,
2013-01-12 22:34:00,36.4,12.6,30.14,North,358,4.0,6.0,37,0.00,,SKC,0.00,VWS V14.00,2013-01-13 06:34:00,
2013-01-12 22:38:00,36.4,12.6,30.13,North,6,8.0,8.0,37,0.00,,SKC,0.00,VWS V14.00,2013-01-13 06:38:00,
2013-01-12 22:39:00,36.4,12.6,30.13,North,7,3.0,8.0,37,0.00,,SKC,0.00,VWS V14.00,2013-01-13 06:39:00,
2013-01-12 22:43:00,36.4,12.6,30.13,North,9,5.0,8.0,37,0.00,,SKC,0.00,VWS V14.00,2013-01-13 06:43:00,
2013-01-12 22:44:00,36.4,12.6,30.13,NNE,32,5.0,9.0,37,0.00,,SKC,0.00,VWS V14.00,2013-01-13 06:44:00,
2013-01-12 22:48:00,36.4,12.6,30.14,North,360,2.0,9.0,37,0.00,,SKC,0.00,VWS V14.00,2013-01-13 06:48:00,
2013-01-12 22:49:00,36.4,12.6,30.14,NNE,31,3.0,9.0,37,0.00,,SKC,0.00,VWS V14.00,2013-01-13 06:49:00,
2013-01-12 22:53:00,36.4,12.6,30.13,North,11,3.0,9.0,37,0.00,,SKC,0.00,VWS V14.00,2013-01-13 06:53:00,
2013-01-12 22:54:00,36.4,12.6,30.14,North,9,5.0,9.0,37,0.00,,SKC,0.00,VWS V14.00,2013-01-13 06:54:00,
2013-01-12 22:58:00,36.3,11.9,30.14,North,2,4.0,9.0,36,0.00,,SKC,0.00,VWS V14.00,2013-01-13 06:58:00,
2013-01-12 22:59:00,36.3,11.9,30.14,North,10,3.0,9.0,36,0.00,,SKC,0.00,VWS V14.00,2013-01-13 06:59:00,
2013-01-12 23:00:00,36.3,12.5,30.14,North,9,9.0,10.0,37,0.00,,SKC,0.00,VWS V14.00,2013-01-13 07:00:00,
2013-01-12 23:03:00,36.2,12.4,30.14,NNW,348,5.0,9.0,37,0.00,,SKC,0.00,VWS V14.00,2013-01-13 07:03:00,
2013-01-12 23:04:00,36.2,11.8,30.14,North,11,4.0,9.0,36,0.00,,SKC,0.00,VWS V14.00,2013-01-13 07:04:00,
2013-01-12 23:05:00,36.2,11.8,30.14,North,360,4.0,9.0,36,0.00,,SKC,0.00,VWS V14.00,2013-01-13 07:05:00,
2013-01-12 23:08:00,36.2,11.8,30.14,NNE,13,5.0,10.0,36,0.00,,SKC,0.00,VWS V14.00,2013-01-13 07:08:00,
2013-01-12 23:09:00,36.2,11.8,30.13,NNE,20,4.0,11.0,36,0.00,,SKC,0.00,VWS V14.00,2013-01-13 07:09:00,
2013-01-12 23:10:00,36.2,11.8,30.13,North,358,7.0,11.0,36,0.00,,SKC,0.00,VWS V14.00,2013-01-13 07:10:00,
2013-01-12 23:13:00,36.3,11.9,30.14,North,354,5.0,11.0,36,0.00,,SKC,0.00,VWS V14.00,2013-01-13 07:13:00,
2013-01-12 23:14:00,36.3,11.9,30.13,NNE,12,3.0,11.0,36,0.00,,SKC,0.00,VWS V14.00,2013-01-13 07:14:00,
2013-01-12 23:15:00,36.2,11.8,30.13,NNW,348,5.0,11.0,36,0.00,,SKC,0.00,VWS V14.00,2013-01-13 07:15:00,
2013-01-12 23:18:00,36.3,11.9,30.14,North,358,6.0,11.0,36,0.00,,SKC,0.00,VWS V14.00,2013-01-13 07:18:00,
2013-01-12 23:20:00,36.3,11.3,30.13,NE,35,6.0,11.0,35,0.00,,SKC,0.00,VWS V14.00,2013-01-13 07:20:00,
2013-01-12 23:23:00,36.3,11.9,30.13,North,2,4.0,11.0,36,0.00,,SKC,0.00,VWS V14.00,2013-01-13 07:23:00,
2013-01-12 23:25:00,36.3,11.9,30.13,NNE,13,6.0,11.0,36,0.00,,SKC,0.00,VWS V14.00,2013-01-13 07:25:00,
2013-01-12 23:29:00,36.2,11.2,30.14,North,352,7.0,11.0,35,0.00,,SKC,0.00,VWS V14.00,2013-01-13 07:29:00,
2013-01-12 23:30:00,36.2,11.2,30.14,North,11,7.0,11.0,35,0.00,,SKC,0.00,VWS V14.00,2013-01-13 07:30:00,
2013-01-12 23:34:00,36.3,11.3,30.14,NNE,13,5.0,9.0,35,0.00,,SKC,0.00,VWS V14.00,2013-01-13 07:34:00,
2013-01-12 23:35:00,36.3,11.3,30.14,NNW,338,7.0,10.0,35,0.00,,SKC,0.00,VWS V14.00,2013-01-13 07:35:00,
2013-01-12 23:39:00,36.3,11.3,30.14,North,11,5.0,11.0,35,0.00,,SKC,0.00,VWS V14.00,2013-01-13 07:39:00,
2013-01-12 23:40:00,36.3,11.3,30.14,North,359,8.0,11.0,35,0.00,,SKC,0.00,VWS V14.00,2013-01-13 07:40:00,
2013-01-12 23:44:00,36.4,11.4,30.14,North,7,7.0,12.0,35,0.00,,SKC,0.00,VWS V14.00,2013-01-13 07:44:00,
2013-01-12 23:45:00,36.4,11.4,30.14,North,9,4.0,12.0,35,0.00,,SKC,0.00,VWS V14.00,2013-01-13 07:45:00,
2013-01-12 23:49:00,36.4,11.4,30.14,NNE,13,4.0,12.0,35,0.00,,SKC,0.00,VWS V14.00,2013-01-13 07:49:00,
2013-01-12 23:50:00,36.4,12.0,30.14,North,5,4.0,12.0,36,0.00,,SKC,0.00,VWS V14.00,2013-01-13 07:50:00,
2013-01-12 23:54:00,36.3,11.9,30.14,NNE,16,4.0,12.0,36,0.00,,SKC,0.00,VWS V14.00,2013-01-13 07:54:00,
2013-01-12 23:55:00,36.3,11.9,30.13,NNE,12,4.0,12.0,36,0.00,,SKC,0.00,VWS V14.00,2013-01-13 07:55:00,
2013-01-12 23:56:00,36.2,11.8,30.13,North,3,4.0,12.0,36,0.00,,SKC,0.00,VWS V14.00,2013-01-13 07:56:00,
2013-01-12 23:59:00,36.1,11.7,30.13,NNE,15,3.0,12.0,36,0.00,,SKC,0.00,VWS V14.00,2013-01-13 07:59:00,